Latitude: N 50° 09' 49" Longitude: W 05° 11' 53" Elevation: 168m ASL

There are 43 visitors online

Adverts

<- Previous Day | Today | Next Day ->

All Data for 16 October 2019

Time
A - D
Temp
A - D
Dew Point
A - D
Humidity
A - D
Pressure
A - D
Wind
A - D
Wind Dir Gust
A - D
Rain Rate
A - D
Rain Total
00:01 14.6 14.5 99 992.9 15.2 WSW 19.7 0.0 0.0
00:02 14.6 14.5 99 992.9 15.2 WSW 19.7 0.0 0.0
00:03 14.6 14.5 99 992.9 15.2 WSW 19.7 0.0 0.0
00:04 14.6 14.5 99 992.9 15.2 WSW 19.7 0.0 0.0
00:05 14.7 14.6 99 992.8 14.5 WSW 19.7 0.0 0.0
00:06 14.7 14.6 99 992.7 11.4 WSW 18.3 0.0 0.0
00:07 14.7 14.6 99 992.7 11.4 WSW 18.3 0.0 0.0
00:08 14.7 14.6 99 992.7 17.4 WSW 18.3 0.0 0.0
00:09 14.7 14.6 99 992.6 12.1 S 17.4 0.0 0.0
00:10 14.7 14.6 99 992.8 15.9 S 17.4 0.0 0.0
00:11 14.7 14.6 99 992.7 12.1 S 17.4 0.0 0.0
00:12 14.7 14.6 99 992.8 12.1 WSW 17.4 0.8 0.1
00:13 14.7 14.6 99 992.8 12.1 WSW 17.4 0.8 0.1
00:14 14.7 14.6 99 992.9 11.4 S 17.4 0.8 0.1
00:15 14.7 14.6 99 992.8 15.2 WSW 17.4 0.8 0.1
00:16 14.7 14.6 99 992.9 10.7 S 17.4 0.8 0.1
00:17 14.7 14.6 99 992.8 9.8 WSW 17.4 0.0 0.1
00:18 14.8 14.7 99 992.9 11.4 S 15.9 0.0 0.1
00:19 14.8 14.7 99 992.7 14.5 SE 15.9 0.0 0.1
00:20 14.8 14.7 99 992.9 11.4 SE 15.2 0.0 0.1
00:21 14.7 14.6 99 992.7 12.1 S 15.2 0.0 0.1
00:22 14.7 14.6 99 992.9 9.8 S 15.2 0.0 0.1
00:23 14.7 14.6 99 992.8 11.4 S 15.2 0.0 0.1
00:24 14.7 14.6 99 992.8 11.4 WSW 15.2 0.0 0.1
00:25 14.7 14.6 99 993.0 9.8 WSW 15.2 0.0 0.1
00:26 14.8 14.7 99 992.8 9.8 WSW 14.5 0.0 0.1
00:27 14.7 14.6 99 992.9 13.0 WSW 14.5 0.0 0.1
00:28 14.8 14.7 99 992.8 13.6 WSW 14.5 0.0 0.1
00:30 14.8 14.7 99 993.0 9.8 S 13.6 0.0 0.1
00:31 14.8 14.7 99 992.9 13.0 S 13.6 0.0 0.1
00:32 14.8 14.7 99 992.9 9.8 SSW 13.6 0.0 0.1
00:33 14.7 14.6 99 992.8 5.4 WSW 13.6 0.0 0.1
00:34 14.7 14.6 99 992.8 7.6 SE 13.6 0.0 0.1
00:35 14.7 14.6 99 992.9 9.2 WSW 13.6 0.0 0.1
00:36 14.7 14.6 99 992.9 9.2 WSW 13.6 0.0 0.1
00:37 14.7 14.6 99 992.9 8.3 S 13.6 0.8 0.1
00:38 14.7 14.6 99 993.0 7.6 WSW 13.6 0.8 0.1
00:39 14.7 14.6 99 993.0 9.2 WSW 13.0 0.8 0.1
00:40 14.7 14.6 99 993.0 11.4 WSW 13.0 0.8 0.1
00:41 14.7 14.6 99 993.1 9.2 WSW 13.0 0.8 0.1
00:42 14.7 14.6 99 993.0 10.7 S 11.4 0.0 0.1
00:43 14.7 14.6 99 993.0 11.4 NW 11.4 0.0 0.1
00:44 14.6 14.5 99 993.1 8.3 N 11.4 0.0 0.1
00:45 14.6 14.5 99 993.1 12.1 WSW 12.1 0.0 0.1
00:46 14.6 14.5 99 993.1 11.4 NW 12.1 0.0 0.1
00:47 14.5 14.4 99 993.0 11.4 NW 12.1 0.0 0.1
00:48 14.4 14.3 99 993.2 9.8 N 12.1 0.0 0.1
00:49 14.4 14.3 99 993.3 9.2 S 12.1 0.0 0.1
00:50 14.4 14.3 99 993.3 9.2 S 12.1 0.0 0.1
00:51 14.3 14.2 99 993.3 13.6 WSW 13.6 0.0 0.1
00:52 14.2 14.1 99 993.4 10.7 WSW 13.6 0.0 0.1
00:53 14.2 14.1 99 993.3 9.8 WSW 13.6 0.0 0.1
00:54 14.2 14.1 99 993.2 7.6 N 13.6 0.0 0.1
00:55 14.1 14.0 99 993.3 15.9 NW 15.9 0.0 0.1
00:56 14.1 14.0 99 993.3 9.2 WSW 15.9 0.0 0.1
00:57 13.9 13.8 99 993.2 11.4 NW 15.9 0.0 0.1
00:59 13.8 13.7 99 993.2 10.7 N 15.9 0.0 0.1
01:01 13.7 13.6 99 993.5 9.8 N 15.9 0.0 0.1
01:02 13.7 13.6 99 993.3 9.8 N 15.9 0.0 0.1
01:03 13.7 13.6 99 993.5 9.8 N 15.9 0.0 0.1
01:05 13.6 13.5 99 993.2 11.4 NW 12.1 0.0 0.1
01:06 13.5 13.4 99 993.4 10.7 N 12.1 0.0 0.1
01:07 13.5 13.4 99 993.4 9.2 N 12.1 0.0 0.1
01:08 13.4 13.3 99 993.5 12.1 N 12.1 0.0 0.1
01:09 13.5 13.4 99 993.4 11.4 WNW 12.1 0.0 0.1
01:10 13.4 13.3 99 993.5 9.2 WSW 12.1 0.0 0.1
01:11 13.4 13.3 99 993.4 9.2 WSW 12.1 0.0 0.1
01:12 13.3 13.2 99 993.4 17.4 WSW 17.4 0.0 0.1
01:13 13.3 13.2 99 993.3 10.7 WSW 17.4 0.0 0.1
01:14 13.3 13.2 99 993.6 16.8 WSW 17.4 0.0 0.1
01:15 13.3 13.2 99 993.5 11.4 N 17.4 0.0 0.1
01:16 13.3 13.2 99 993.4 9.8 NW 17.4 0.0 0.1
01:17 13.2 13.1 99 993.6 11.4 WSW 17.4 0.0 0.1
01:18 13.1 13.0 99 993.7 9.8 WSW 17.4 0.0 0.1
01:19 13.1 13.0 99 993.5 10.7 NW 17.4 0.0 0.1
01:20 13.1 13.0 99 993.7 10.7 NW 17.4 0.0 0.1
01:21 13.1 13.0 99 993.6 8.3 NW 17.4 0.0 0.1
01:22 13.0 12.9 99 993.5 11.4 WSW 16.8 0.0 0.1
01:23 13.0 12.9 99 993.5 11.4 WSW 16.8 0.0 0.1
01:24 13.0 12.9 99 993.5 12.1 WNW 16.8 0.0 0.1
01:25 13.0 12.9 99 993.6 13.6 WSW 14.5 0.0 0.1
01:26 13.0 12.9 99 993.5 9.2 WSW 14.5 0.0 0.1
01:27 12.9 12.8 99 993.4 9.8 WSW 14.5 0.0 0.1
01:28 12.9 12.8 99 993.5 13.0 WSW 13.6 0.0 0.1
01:29 12.9 12.8 99 993.5 11.4 NW 13.6 0.0 0.1
01:30 12.8 12.7 99 993.7 9.8 NW 13.6 0.0 0.1
01:32 12.8 12.7 99 993.6 11.4 NW 13.6 0.0 0.1
01:33 12.8 12.7 99 993.7 7.6 WSW 13.6 0.0 0.1
01:34 12.8 12.7 99 993.7 10.7 NW 13.6 0.0 0.1
01:35 12.8 12.7 99 993.7 9.2 NW 13.0 0.0 0.1
01:36 12.8 12.7 99 993.6 13.0 WNW 13.0 0.0 0.1
01:37 12.8 12.7 99 993.7 11.4 NW 13.6 0.0 0.1
01:38 12.8 12.7 99 993.7 11.4 NW 13.6 0.0 0.1
01:39 12.7 12.6 99 993.8 15.9 NW 15.9 0.0 0.1
01:40 12.7 12.6 99 993.7 12.1 S 15.9 0.0 0.1
01:41 12.7 12.6 99 993.8 10.7 WSW 15.9 0.0 0.1
01:42 12.7 12.6 99 993.9 12.1 WSW 15.9 0.0 0.1
01:43 12.6 12.5 99 993.9 12.1 NW 15.9 0.0 0.1
01:44 12.6 12.5 99 993.8 9.8 WNW 15.9 0.0 0.1
01:45 12.6 12.5 99 993.8 8.3 S 15.9 0.0 0.1
01:47 12.5 12.4 99 993.7 13.6 NW 15.9 0.8 0.2
01:48 12.5 12.4 99 993.8 8.3 NW 15.9 0.8 0.2
01:49 12.4 12.3 99 993.7 11.4 WSW 13.6 0.8 0.2
01:50 12.5 12.4 99 993.8 10.7 NW 13.6 0.8 0.2
01:51 12.4 12.3 99 993.8 10.7 NW 13.6 0.8 0.2
01:52 12.4 12.3 99 993.7 9.2 NW 13.6 0.0 0.2
01:53 12.4 12.3 99 994.0 7.6 NW 13.6 0.0 0.2
01:54 12.4 12.3 99 993.7 9.8 WSW 13.6 0.0 0.2
01:55 12.4 12.3 99 993.7 9.2 NW 13.6 0.0 0.2
01:56 12.4 12.3 99 993.7 10.7 NW 13.6 0.0 0.2
01:57 12.3 12.2 99 993.6 8.3 WSW 13.6 0.0 0.2
01:58 12.3 12.2 99 993.8 6.9 NW 11.4 0.0 0.2
01:59 12.3 12.2 99 993.8 7.6 NW 11.4 0.0 0.2
02:00 12.3 12.2 99 993.8 9.2 WSW 10.7 0.0 0.2
02:01 12.3 12.2 99 993.7 9.2 WSW 10.7 0.0 0.2
02:02 12.3 12.2 99 993.9 9.2 WSW 10.7 0.0 0.2
02:03 12.3 12.2 99 993.8 9.2 WSW 10.7 0.0 0.2
02:04 12.3 12.2 99 993.8 9.2 WSW 10.7 0.0 0.2
02:05 12.2 12.1 99 993.8 12.1 WSW 12.1 0.0 0.2
02:06 12.2 12.1 99 993.8 12.1 WSW 12.1 0.0 0.2
02:07 12.3 12.2 99 993.9 11.4 NW 12.1 0.0 0.2
02:08 12.2 12.1 99 994.0 9.2 WSW 12.1 0.0 0.2
02:09 12.2 12.1 99 994.0 6.0 NW 12.1 0.0 0.2
02:10 12.2 12.1 99 994.1 6.0 WSW 12.1 0.0 0.2
02:11 12.2 12.1 99 993.9 10.7 NW 12.1 0.0 0.2
02:12 12.2 12.1 99 994.1 7.6 WSW 12.1 0.0 0.2
02:13 12.1 12.0 99 994.1 6.9 NW 12.1 0.0 0.2
02:14 12.1 12.0 99 994.0 11.4 S 12.1 0.0 0.2
02:15 12.1 12.0 99 994.1 10.7 NW 12.1 0.0 0.2
02:16 12.1 12.0 99 994.0 9.2 NW 11.4 0.0 0.2
02:17 12.1 12.0 99 993.8 6.0 NW 11.4 0.0 0.2
02:18 12.1 12.0 99 994.1 6.0 WSW 11.4 0.0 0.2
02:19 12.0 11.9 99 994.0 8.3 NW 11.4 0.0 0.2
02:20 12.0 11.9 99 993.9 6.9 NW 11.4 0.0 0.2
02:21 12.0 11.9 99 994.2 8.3 NW 11.4 0.0 0.2
02:22 12.0 11.9 99 994.2 9.2 WSW 11.4 0.0 0.2
02:23 12.0 11.9 99 994.0 9.8 NW 11.4 0.0 0.2
02:24 12.0 11.9 99 994.2 6.9 NW 11.4 0.0 0.2
02:25 12.0 11.9 99 994.0 6.9 NW 10.7 0.0 0.2
02:26 12.0 11.9 99 994.1 9.8 WSW 10.7 0.0 0.2
02:27 12.0 11.9 99 994.2 10.7 WSW 10.7 0.0 0.2
02:28 11.9 11.8 99 994.1 8.3 WSW 10.7 0.0 0.2
02:29 11.9 11.8 99 993.9 8.3 WSW 10.7 0.0 0.2
02:30 11.9 11.8 99 994.0 10.7 NW 10.7 0.0 0.2
02:31 11.9 11.8 99 994.0 7.6 NW 10.7 0.0 0.2
02:32 11.9 11.8 99 994.1 8.3 NW 10.7 0.0 0.2
02:33 11.8 11.7 99 994.0 7.6 WSW 10.7 0.0 0.2
02:34 11.8 11.7 99 994.0 7.6 WSW 10.7 0.0 0.2
02:35 11.8 11.7 99 994.1 6.9 WSW 10.7 0.0 0.2
02:36 11.8 11.7 99 994.0 6.9 WSW 10.7 0.0 0.2
02:37 11.8 11.7 99 994.2 8.3 WSW 10.7 0.0 0.2
02:38 11.7 11.6 99 994.2 7.6 WSW 10.7 0.0 0.2
02:39 11.7 11.6 99 994.3 7.6 WSW 10.7 0.0 0.2
02:40 11.7 11.6 99 994.4 6.0 NW 10.7 0.0 0.2
02:41 11.7 11.6 99 994.3 4.5 WSW 8.3 0.0 0.2
02:43 11.6 11.5 99 994.4 6.0 WSW 8.3 0.0 0.2
02:44 11.6 11.5 99 994.3 7.6 WSW 8.3 0.0 0.2
02:45 11.6 11.5 99 994.4 6.0 NW 8.3 0.0 0.2
02:46 11.5 11.4 99 994.5 4.5 WSW 8.3 0.0 0.2
02:47 11.5 11.4 99 994.5 6.0 WSW 7.6 0.0 0.2
02:48 11.5 11.4 99 994.4 5.4 WSW 7.6 0.0 0.2
02:49 11.5 11.4 99 994.4 4.5 WSW 7.6 0.0 0.2
02:50 11.5 11.4 99 994.4 5.4 S 7.6 0.0 0.2
02:51 11.5 11.4 99 994.5 6.0 NW 7.6 0.0 0.2
02:52 11.5 11.4 99 994.4 7.6 WSW 7.6 0.0 0.2
02:53 11.4 11.3 99 994.4 6.0 NW 7.6 0.0 0.2
02:54 11.4 11.3 99 994.5 4.5 NW 7.6 0.0 0.2
02:55 11.4 11.3 99 994.4 6.0 WSW 7.6 0.0 0.2
02:57 11.3 11.2 99 994.4 4.5 WSW 7.6 0.0 0.2
02:58 11.3 11.2 99 994.3 6.0 NW 7.6 0.0 0.2
02:59 11.3 11.2 99 994.4 6.0 NW 7.6 0.0 0.2
03:00 11.3 11.2 99 994.4 5.4 NW 7.6 0.0 0.2
03:01 11.3 11.2 99 994.3 5.4 NW 7.6 0.0 0.2
03:03 11.3 11.2 99 994.4 5.4 NW 6.9 0.0 0.2
03:04 11.3 11.2 99 994.4 5.4 NW 6.9 0.0 0.2
03:05 11.3 11.2 99 994.2 6.0 NW 6.9 0.0 0.2
03:06 11.2 11.1 99 994.5 3.1 NW 6.9 0.0 0.2
03:07 11.2 11.1 99 994.3 6.9 WSW 6.9 0.0 0.2
03:08 11.3 11.2 99 994.3 8.3 NW 8.3 0.0 0.2
03:09 11.2 11.1 99 994.3 6.0 WSW 8.3 0.0 0.2
03:10 11.2 11.1 99 994.4 6.0 WSW 8.3 0.0 0.2
03:11 11.2 11.1 99 994.4 5.4 WSW 8.3 0.0 0.2
03:12 11.2 11.1 99 994.4 5.4 WSW 8.3 0.0 0.2
03:13 11.2 11.1 99 994.5 5.4 WSW 8.3 0.0 0.2
03:14 11.2 11.1 99 994.4 5.4 WSW 8.3 0.0 0.2
03:15 11.2 11.1 99 994.4 5.4 WSW 8.3 0.0 0.2
03:16 11.2 11.1 99 994.5 6.0 NW 8.3 0.0 0.2
03:18 11.2 11.1 99 994.5 7.6 WSW 7.6 0.0 0.2
03:19 11.2 11.1 99 994.5 6.9 WSW 7.6 0.0 0.2
03:20 11.2 11.1 99 994.7 6.0 WSW 7.6 0.0 0.2
03:21 11.2 11.1 99 994.7 7.6 WSW 7.6 0.0 0.2
03:22 11.2 11.1 99 994.5 6.9 WSW 7.6 0.0 0.2
03:23 11.2 11.1 99 994.7 6.9 WSW 7.6 0.0 0.2
03:24 11.2 11.1 99 994.7 5.4 WSW 7.6 0.0 0.2
03:25 11.2 11.1 99 994.4 6.9 WSW 7.6 0.0 0.2
03:26 11.2 11.1 99 994.7 6.0 S 7.6 0.0 0.2
03:27 11.2 11.1 99 994.6 7.6 WSW 7.6 0.0 0.2
03:28 11.2 11.1 99 994.6 4.5 WSW 7.6 0.0 0.2
03:29 11.2 11.1 99 994.7 6.0 WSW 7.6 0.0 0.2
03:30 11.2 11.1 99 994.8 6.9 NW 7.6 0.0 0.2
03:32 11.2 11.1 99 994.7 6.9 WSW 7.6 0.0 0.2
03:33 11.2 11.1 99 994.7 6.9 WSW 7.6 0.0 0.2
03:34 11.2 11.1 99 994.7 6.9 WSW 7.6 0.0 0.2
03:35 11.2 11.1 99 994.8 6.0 WSW 7.6 0.0 0.2
03:36 11.2 11.1 99 994.7 4.5 S 7.6 0.0 0.2
03:37 11.2 11.1 99 994.8 7.6 WSW 7.6 0.0 0.2
03:38 11.2 11.1 99 994.7 6.0 WSW 7.6 0.0 0.2
03:39 11.2 11.1 99 994.7 6.0 WSW 7.6 0.0 0.2
03:40 11.2 11.1 99 994.7 6.0 NW 7.6 0.0 0.2
03:41 11.1 11.0 99 994.8 7.6 WSW 7.6 0.0 0.2
03:42 11.2 11.1 99 994.8 6.9 NW 7.6 0.0 0.2
03:43 11.2 11.1 99 994.7 5.4 NW 7.6 0.0 0.2
03:44 11.1 11.0 99 994.8 7.6 NW 7.6 0.0 0.2
03:45 11.2 11.1 99 994.7 8.3 WSW 8.3 0.0 0.2
03:46 11.2 11.1 99 994.7 6.0 NW 8.3 0.0 0.2
03:48 11.1 11.0 99 994.9 6.0 SSW 9.2 0.0 0.2
03:49 11.1 11.0 99 994.8 10.7 WSW 10.7 0.0 0.2
03:50 11.1 11.0 99 994.9 6.9 NW 10.7 0.0 0.2
03:51 11.1 11.0 99 995.0 4.5 NW 10.7 0.0 0.2
03:52 11.1 11.0 99 995.0 6.0 WNW 10.7 0.0 0.2
03:53 11.1 11.0 99 994.9 9.2 WSW 10.7 0.0 0.2
03:54 11.1 11.0 99 995.0 9.2 NW 10.7 0.0 0.2
03:55 11.1 11.0 99 995.0 8.3 WSW 10.7 0.0 0.2
03:56 11.1 11.0 99 995.0 12.1 WSW 12.1 0.0 0.2
03:57 11.1 11.0 99 995.1 7.6 WSW 12.1 0.0 0.2
03:58 11.1 11.0 99 994.9 8.3 WSW 12.1 0.0 0.2
03:59 11.1 11.0 99 995.1 8.3 NW 12.1 0.0 0.2
04:00 11.0 10.9 99 995.1 9.2 WSW 12.1 0.0 0.2
04:01 11.0 10.9 99 995.0 9.2 WSW 12.1 0.0 0.2
04:03 11.0 10.9 99 995.2 9.2 WSW 12.1 0.0 0.2
04:04 11.0 10.9 99 995.2 9.2 WSW 12.1 0.0 0.2
04:05 11.0 10.9 99 995.1 9.2 WSW 12.1 0.0 0.2
04:06 11.0 10.9 99 995.2 9.8 NW 9.8 0.0 0.2
04:07 11.0 10.9 99 995.2 12.1 WNW 12.1 0.0 0.2
04:08 11.0 10.9 99 995.2 9.2 WNW 12.1 0.0 0.2
04:09 11.0 10.9 99 995.2 5.4 WSW 12.1 0.0 0.2
04:10 10.9 10.8 99 995.1 6.9 WSW 12.1 0.0 0.2
04:11 11.0 10.9 99 995.1 9.2 NW 12.1 0.0 0.2
04:12 10.9 10.8 99 995.2 9.2 WSW 12.1 0.0 0.2
04:13 10.9 10.8 99 995.2 6.9 NW 12.1 0.0 0.2
04:14 10.9 10.8 99 995.2 7.6 WNW 12.1 0.0 0.2
04:15 10.9 10.8 99 995.3 8.3 N 12.1 0.0 0.2
04:17 10.9 10.8 99 995.2 7.6 NW 12.1 0.0 0.2
04:18 10.8 10.7 99 995.3 6.9 NW 10.7 0.0 0.2
04:19 10.8 10.7 99 995.3 6.9 WSW 10.7 0.0 0.2
04:20 10.8 10.7 99 995.1 6.9 WSW 10.7 0.0 0.2
04:21 10.8 10.7 99 995.3 6.9 WSW 10.7 0.0 0.2
04:22 10.8 10.7 99 995.2 6.9 WSW 10.7 0.0 0.2
04:23 10.8 10.7 99 995.2 6.9 WSW 10.7 0.0 0.2
04:24 10.8 10.7 99 995.3 7.6 WSW 10.7 0.0 0.2
04:25 10.8 10.7 99 995.3 7.6 WSW 10.7 0.0 0.2
04:26 10.8 10.7 99 995.2 6.9 N 10.7 0.0 0.2
04:27 10.7 10.6 99 995.4 6.0 NW 10.7 0.0 0.2
04:28 10.7 10.6 99 995.3 6.9 WSW 10.7 0.0 0.2
04:29 10.7 10.6 99 995.4 9.2 WSW 9.2 0.0 0.2
04:30 10.7 10.6 99 995.5 9.2 NW 9.2 0.0 0.2
04:31 10.7 10.6 99 995.6 6.9 WSW 9.2 0.0 0.2
04:32 10.7 10.6 99 995.5 6.0 S 9.2 0.0 0.2
04:33 10.6 10.5 99 995.7 5.4 WSW 9.2 0.0 0.2
04:34 10.6 10.5 99 995.5 5.4 WSW 9.2 0.0 0.2
04:35 10.6 10.5 99 995.5 6.0 WSW 9.2 0.0 0.2
04:36 10.6 10.5 99 995.4 5.4 WSW 9.2 0.0 0.2
04:37 10.5 10.4 99 995.5 6.0 WSW 9.2 0.0 0.2
04:38 10.6 10.5 99 995.5 6.9 NW 9.2 0.0 0.2
04:39 10.5 10.4 99 995.4 7.6 WSW 9.2 0.0 0.2
04:40 10.5 10.4 99 995.6 4.5 NW 9.2 0.0 0.2
04:41 10.5 10.4 99 995.6 6.9 NW 7.6 0.0 0.2
04:42 10.5 10.4 99 995.6 7.6 NW 7.6 0.0 0.2
04:43 10.4 10.3 99 995.6 4.5 NW 7.6 0.0 0.2
04:44 10.4 10.3 99 995.6 8.3 NW 8.3 0.0 0.2
04:46 10.3 10.2 99 995.6 5.4 WSW 8.3 0.0 0.2
04:47 10.3 10.2 99 995.7 4.5 WSW 8.3 0.0 0.2
04:48 10.3 10.2 99 995.6 5.4 WSW 8.3 0.0 0.2
04:49 10.3 10.2 99 995.7 5.4 WSW 8.3 0.0 0.2
04:50 10.3 10.2 99 995.6 6.9 NW 8.3 0.0 0.2
04:51 10.3 10.2 99 995.6 6.0 NW 8.3 0.0 0.2
04:52 10.2 10.1 99 995.6 4.5 NW 8.3 0.0 0.2
04:53 10.2 10.1 99 995.6 4.5 WNW 8.3 0.0 0.2
04:54 10.2 10.1 99 995.5 6.0 NW 8.3 0.0 0.2
04:55 10.2 10.1 99 995.6 5.4 WSW 6.9 0.0 0.2
04:56 10.2 10.1 99 995.7 4.5 WSW 6.9 0.0 0.2
04:57 10.2 10.1 99 995.6 3.8 WSW 6.9 0.0 0.2
04:58 10.2 10.1 99 995.7 3.8 WSW 6.9 0.0 0.2
05:00 10.2 10.1 99 995.7 4.5 NW 6.9 0.0 0.2
05:01 10.2 10.1 99 995.6 4.5 NW 6.0 0.0 0.2
05:02 10.2 10.1 99 995.6 4.5 NW 6.0 0.0 0.2
05:04 10.2 10.1 99 995.6 4.5 NW 6.0 0.0 0.2
05:05 10.2 10.1 99 995.6 4.5 NW 4.5 0.0 0.2
05:06 10.2 10.1 99 995.5 6.0 WSW 6.0 0.0 0.2
05:07 10.2 10.1 99 995.5 3.8 NW 6.0 0.0 0.2
05:08 10.2 10.1 99 995.4 7.6 NW 7.6 0.0 0.2
05:09 10.2 10.1 99 995.5 4.5 NW 7.6 0.0 0.2
05:10 10.2 10.1 99 995.4 8.3 NW 8.3 0.0 0.2
05:11 10.2 10.1 99 995.4 8.3 NW 8.3 0.0 0.2
05:12 10.2 10.1 99 995.5 4.5 NW 8.3 0.0 0.2
05:13 10.2 10.1 99 995.4 6.0 NW 8.3 0.0 0.2
05:14 10.2 10.1 99 995.5 4.5 NW 8.3 0.0 0.2
05:15 10.2 10.1 99 995.6 4.5 NW 8.3 0.0 0.2
05:16 10.2 10.1 99 995.6 4.5 NW 8.3 0.0 0.2
05:17 10.2 10.1 99 995.6 5.4 WSW 8.3 0.0 0.2
05:18 10.3 10.2 99 995.5 3.8 NW 8.3 0.0 0.2
05:19 10.3 10.2 99 995.5 3.1 NW 8.3 0.0 0.2
05:20 10.3 10.2 99 995.4 5.4 NW 8.3 0.0 0.2
05:21 10.3 10.2 99 995.5 4.5 NW 8.3 0.0 0.2
05:22 10.3 10.2 99 995.4 5.4 NW 6.0 0.0 0.2
05:23 10.3 10.2 99 995.4 4.5 NW 5.4 0.0 0.2
05:24 10.3 10.2 99 995.6 4.5 NW 5.4 0.0 0.2
05:25 10.3 10.2 99 995.4 3.8 WSW 5.4 0.0 0.2
05:26 10.3 10.2 99 995.6 4.5 NW 5.4 0.0 0.2
05:27 10.3 10.2 99 995.6 5.4 NW 5.4 0.0 0.2
05:28 10.3 10.2 99 995.5 7.6 NW 7.6 0.0 0.2
05:29 10.3 10.2 99 995.6 7.6 WSW 7.6 0.0 0.2
05:30 10.3 10.2 99 995.6 4.5 NW 7.6 0.0 0.2
05:31 10.3 10.2 99 995.5 5.4 NW 7.6 0.0 0.2
05:32 10.3 10.2 99 995.5 5.4 NW 7.6 0.0 0.2
05:34 10.3 10.2 99 995.5 4.5 NW 7.6 0.0 0.2
05:35 10.3 10.2 99 995.4 5.4 N 7.6 0.0 0.2
05:36 10.3 10.2 99 995.5 3.8 NW 7.6 0.0 0.2
05:37 10.3 10.2 99 995.5 3.8 NW 7.6 0.0 0.2
05:38 10.3 10.2 99 995.7 4.5 WSW 7.6 0.0 0.2
05:39 10.3 10.2 99 995.8 5.4 WSW 6.9 0.0 0.2
05:40 10.3 10.2 99 995.9 4.5 WSW 6.9 0.0 0.2
05:41 10.3 10.2 99 995.8 5.4 WSW 6.9 0.0 0.2
05:42 10.3 10.2 99 995.8 5.4 WSW 5.4 0.0 0.2
05:43 10.3 10.2 99 995.7 6.9 N 6.9 0.0 0.2
05:44 10.3 10.2 99 995.9 3.8 SW 6.9 0.0 0.2
05:45 10.3 10.2 99 995.8 3.8 SW 6.9 0.0 0.2
05:46 10.3 10.2 99 995.9 5.4 WSW 6.9 0.0 0.2
05:48 10.3 10.0 98 995.8 6.0 WSW 6.9 0.0 0.2
05:49 10.3 10.0 98 995.9 7.6 N 7.6 0.0 0.2
05:50 10.3 10.0 98 995.9 6.9 WSW 7.6 0.0 0.2
05:51 10.3 10.0 98 996.0 5.4 WSW 7.6 0.0 0.2
05:52 10.3 10.0 98 996.0 4.5 WSW 7.6 0.0 0.2
05:53 10.2 9.9 98 996.0 4.5 WSW 7.6 0.0 0.2
05:54 10.3 10.0 98 996.0 4.5 N 7.6 0.0 0.2
05:55 10.2 9.9 98 995.9 4.5 N 7.6 0.0 0.2
05:56 10.2 9.9 98 995.9 4.5 N 7.6 0.0 0.2
05:57 10.2 9.9 98 995.9 4.5 WNW 7.6 0.0 0.2
05:58 10.3 10.0 98 995.9 5.4 N 7.6 0.0 0.2
05:59 10.2 9.9 98 996.0 6.0 N 7.6 0.0 0.2
06:00 10.2 9.9 98 995.9 5.4 WSW 6.9 0.0 0.2
06:01 10.2 9.9 98 996.0 5.4 WSW 6.9 0.0 0.2
06:02 10.2 9.9 98 996.1 5.4 WSW 6.0 0.0 0.2
06:03 10.2 9.9 98 996.1 5.4 WSW 6.0 0.0 0.2
06:04 10.2 9.9 98 995.9 5.4 WSW 6.0 0.0 0.2
06:05 10.2 9.9 98 995.9 5.4 WSW 6.0 0.0 0.2
06:06 10.2 9.7 97 996.1 3.8 W 6.0 0.0 0.2
06:07 10.2 9.7 97 995.9 4.5 NW 6.0 0.0 0.2
06:08 10.2 9.7 97 995.9 6.9 W 6.9 0.0 0.2
06:09 10.2 9.7 97 996.0 5.4 WSW 6.9 0.0 0.2
06:10 10.2 9.7 97 996.1 5.4 W 6.9 0.0 0.2
06:11 10.2 9.7 97 996.0 6.0 WSW 6.9 0.0 0.2
06:12 10.2 9.7 97 996.2 4.5 W 6.9 0.0 0.2
06:13 10.2 9.7 97 996.0 3.8 W 6.9 0.0 0.2
06:14 10.2 9.7 97 996.1 4.5 WSW 6.9 0.0 0.2
06:15 10.2 9.7 97 996.1 4.5 W 6.9 0.0 0.2
06:16 10.2 9.6 96 996.2 3.8 W 6.9 0.0 0.2
06:17 10.2 9.6 96 995.9 3.8 NW 6.9 0.0 0.2
06:18 10.2 9.6 96 996.0 3.1 W 6.0 0.0 0.2
06:19 10.2 9.6 96 996.2 4.5 W 6.0 0.0 0.2
06:20 10.1 9.5 96 996.1 5.4 W 6.0 0.0 0.2
06:21 10.1 9.5 96 996.1 3.1 W 5.4 0.0 0.2
06:22 10.1 9.5 96 996.1 3.1 WSW 5.4 0.0 0.2
06:23 10.1 9.5 96 996.0 3.1 W 5.4 0.0 0.2
06:24 10.1 9.5 96 996.1 3.1 WSW 5.4 0.0 0.2
06:25 10.1 9.5 96 996.0 3.8 W 5.4 0.0 0.2
06:26 10.1 9.5 96 996.1 3.8 WSW 5.4 0.0 0.2
06:27 10.1 9.5 96 996.0 3.8 W 5.4 0.0 0.2
06:28 10.1 9.3 95 996.1 4.5 W 5.4 0.0 0.2
06:29 10.1 9.3 95 995.9 4.5 W 5.4 0.0 0.2
06:30 10.1 9.3 95 996.1 5.4 W 5.4 0.0 0.2
06:31 10.1 9.3 95 996.1 4.5 WSW 5.4 0.0 0.2
06:32 10.1 9.3 95 996.1 3.1 W 5.4 0.0 0.2
06:33 10.1 9.3 95 996.2 3.1 NW 5.4 0.0 0.2
06:34 10.1 9.3 95 996.2 3.8 WSW 5.4 0.0 0.2
06:35 10.1 9.3 95 996.1 5.4 W 5.4 0.0 0.2
06:36 10.1 9.3 95 996.2 4.5 W 5.4 0.0 0.2
06:37 10.1 9.3 95 996.3 4.5 W 5.4 0.0 0.2
06:38 10.1 9.2 94 996.2 5.4 W 5.4 0.0 0.2
06:39 10.1 9.2 94 996.2 5.4 W 5.4 0.0 0.2
06:40 10.0 9.1 94 996.4 4.5 W 5.4 0.0 0.2
06:41 10.0 9.1 94 996.3 4.5 WSW 5.4 0.0 0.2
06:42 10.0 9.1 94 996.4 3.8 W 5.4 0.0 0.2
06:43 10.0 9.1 94 996.2 3.8 W 5.4 0.0 0.2
06:44 10.0 9.1 94 996.4 3.8 W 5.4 0.0 0.2
06:45 10.0 9.1 94 996.2 3.8 W 5.4 0.0 0.2
06:46 10.0 9.1 94 996.3 3.8 WSW 5.4 0.0 0.2
06:47 10.0 9.1 94 996.3 3.1 W 5.4 0.0 0.2
06:48 10.0 8.9 93 996.4 3.1 W 5.4 0.0 0.2
06:49 9.9 8.8 93 996.3 3.8 W 4.5 0.0 0.2
06:50 9.9 8.8 93 996.5 3.8 W 4.5 0.0 0.2
06:51 9.9 8.8 93 996.5 3.1 W 3.8 0.0 0.2
06:52 9.9 8.8 93 996.4 3.1 NW 3.8 0.0 0.2
06:53 9.8 8.7 93 996.4 3.8 W 3.8 0.0 0.2
06:54 9.9 8.8 93 996.4 3.8 W 3.8 0.0 0.2
06:55 9.9 8.8 93 996.2 3.1 W 3.8 0.0 0.2
06:56 9.8 8.7 93 996.6 3.1 W 3.8 0.0 0.2
06:57 9.8 8.7 93 996.3 3.1 NW 3.8 0.0 0.2
06:58 9.8 8.7 93 996.4 3.1 W 3.8 0.0 0.2
06:59 9.8 8.7 93 996.4 3.1 W 3.8 0.0 0.2
07:01 9.8 8.7 93 996.3 4.5 W 4.5 0.0 0.2
07:02 9.8 8.7 93 996.4 4.5 W 4.5 0.0 0.2
07:03 9.8 8.7 93 996.4 4.5 W 4.5 0.0 0.2
07:05 9.8 8.7 93 996.5 4.5 W 4.5 0.0 0.2
07:06 9.8 8.7 93 996.6 2.2 WSW 4.5 0.0 0.2
07:07 9.8 8.7 93 996.7 3.1 W 4.5 0.0 0.2
07:08 9.7 8.6 93 996.7 3.1 W 4.5 0.0 0.2
07:09 9.8 8.7 93 996.5 3.8 W 4.5 0.0 0.2
07:10 9.8 8.7 93 996.5 3.8 W 4.5 0.0 0.2
07:11 9.8 8.7 93 996.7 4.5 WSW 4.5 0.0 0.2
07:12 9.7 8.6 93 996.7 5.4 W 5.4 0.0 0.2
07:13 9.8 8.7 93 996.6 8.3 W 8.3 0.0 0.2
07:14 9.8 8.7 93 996.7 9.8 WSW 9.8 0.0 0.2
07:16 9.8 8.7 93 996.8 13.0 W 13.0 0.0 0.2
07:17 9.9 8.8 93 996.7 9.8 W 13.0 0.0 0.2
07:18 9.9 8.8 93 996.6 11.4 W 13.0 0.0 0.2
07:19 10.0 8.9 93 996.6 10.7 W 13.0 0.0 0.2
07:20 10.0 8.9 93 996.6 12.1 WSW 13.0 0.0 0.2
07:21 10.0 8.9 93 996.7 10.7 WSW 13.0 0.0 0.2
07:22 10.0 8.9 93 996.7 7.6 W 13.0 0.0 0.2
07:23 10.0 8.9 93 996.7 6.9 WSW 13.0 0.0 0.2
07:24 10.1 9.0 93 996.8 8.3 WSW 13.0 0.0 0.2
07:25 10.1 9.0 93 996.8 9.8 NW 13.0 0.0 0.2
07:26 10.1 9.0 93 996.9 9.2 WSW 13.0 0.0 0.2
07:27 10.1 9.0 93 996.9 8.3 NW 12.1 0.0 0.2
07:28 10.2 9.1 93 996.8 5.4 S 12.1 0.0 0.2
07:30 10.2 9.1 93 996.9 4.5 W 12.1 0.0 0.2
07:31 10.2 9.1 93 996.8 6.9 WSW 9.8 0.0 0.2
07:32 10.2 9.1 93 996.9 6.9 WSW 9.8 0.0 0.2
07:33 10.2 9.1 93 996.8 6.0 W 9.8 0.0 0.2
07:34 10.3 9.2 93 996.9 6.9 NW 9.8 0.0 0.2
07:35 10.3 9.2 93 996.9 5.4 WSW 9.2 0.0 0.2
07:36 10.3 9.2 93 996.9 5.4 WSW 9.2 0.0 0.2
07:37 10.3 9.2 93 996.7 3.8 WNW 8.3 0.0 0.2
07:38 10.3 9.2 93 996.7 3.8 E 7.6 0.0 0.2
07:39 10.3 9.2 93 996.6 3.1 WSW 7.6 0.0 0.2
07:40 10.3 9.2 93 996.6 4.5 NW 7.6 0.0 0.2
07:41 10.3 9.2 93 996.7 5.4 NW 7.6 0.0 0.2
07:42 10.3 9.2 93 996.7 4.5 NW 7.6 0.0 0.2
07:44 10.3 9.2 93 996.6 3.1 NW 6.9 0.0 0.2
07:45 10.3 9.2 93 996.7 3.8 NW 6.9 0.0 0.2
07:46 10.3 9.2 93 996.7 3.1 NW 6.9 0.0 0.2
07:47 10.3 9.2 93 996.7 5.4 WSW 6.9 0.0 0.2
07:48 10.3 9.2 93 996.7 4.5 NW 6.9 0.0 0.2
07:49 10.3 9.2 93 996.7 4.5 W 6.9 0.0 0.2
07:50 10.3 9.2 93 996.7 3.8 NW 6.9 0.0 0.2
07:51 10.3 9.2 93 996.7 3.1 NW 6.9 0.0 0.2
07:52 10.3 9.2 93 996.7 7.6 WSW 7.6 0.0 0.2
07:53 10.3 9.2 93 996.8 5.4 W 7.6 0.0 0.2
07:54 10.3 9.2 93 996.8 4.5 NW 7.6 0.0 0.2
07:55 10.3 9.2 93 996.8 4.5 WSW 7.6 0.0 0.2
07:56 10.3 9.2 93 996.7 6.0 W 7.6 0.0 0.2
07:58 10.3 9.2 93 996.8 5.4 W 7.6 0.0 0.2
07:59 10.3 9.2 93 996.9 5.4 NW 7.6 0.0 0.2
08:00 10.3 9.2 93 996.8 3.1 W 7.6 0.0 0.2
08:01 10.3 9.2 93 996.9 3.1 W 7.6 0.0 0.2
08:02 10.3 9.2 93 996.8 3.1 W 6.0 0.0 0.2
08:03 10.3 9.2 93 996.8 3.1 W 6.0 0.0 0.2
08:04 10.3 9.2 93 996.8 3.1 W 6.0 0.0 0.2
08:05 10.3 9.2 93 997.1 3.1 W 6.0 0.0 0.2
08:06 10.3 9.1 92 996.9 3.8 NW 5.4 0.0 0.2
08:07 10.3 9.2 93 997.0 3.1 W 5.4 0.0 0.2
08:08 10.3 9.1 92 996.8 4.5 WNW 5.4 0.0 0.2
08:09 10.3 9.1 92 996.9 4.5 W 5.4 0.0 0.2
08:10 10.3 9.1 92 996.9 4.5 WSW 4.5 0.0 0.2
08:12 10.2 9.0 92 996.9 5.4 NW 5.4 0.0 0.2
08:13 10.3 9.1 92 997.0 3.8 W 5.4 0.0 0.2
08:14 10.3 9.1 92 997.1 4.5 W 5.4 0.0 0.2
08:15 10.2 9.0 92 996.9 5.4 W 5.4 0.0 0.2
08:16 10.3 9.1 92 997.0 5.4 W 5.4 0.0 0.2
08:17 10.2 9.0 92 996.9 4.5 WSW 5.4 0.0 0.2
08:18 10.3 9.1 92 997.0 6.0 WSW 6.0 0.0 0.2
08:19 10.2 9.0 92 997.1 6.9 W 6.9 0.0 0.2
08:20 10.2 9.0 92 997.2 4.5 W 6.9 0.0 0.2
08:21 10.2 9.0 92 997.3 5.4 WSW 6.9 0.0 0.2
08:22 10.2 9.0 92 997.2 5.4 WSW 6.9 0.0 0.2
08:23 10.2 9.0 92 997.2 6.0 S 6.9 0.0 0.2
08:24 10.2 9.0 92 997.4 6.9 W 6.9 0.0 0.2
08:26 10.2 9.0 92 997.3 8.3 W 8.3 0.0 0.2
08:27 10.2 9.0 92 997.4 6.9 WSW 8.3 0.0 0.2
08:28 10.2 9.0 92 997.4 6.0 W 8.3 0.0 0.2
08:29 10.2 9.0 92 997.3 6.9 WSW 8.3 0.0 0.2
08:30 10.2 9.0 92 997.5 6.0 W 8.3 0.0 0.2
08:31 10.2 9.0 92 997.5 5.4 W 8.3 0.0 0.2
08:32 10.2 9.0 92 997.5 5.4 WSW 8.3 0.0 0.2
08:33 10.2 9.0 92 997.5 3.8 WSW 8.3 0.0 0.2
08:34 10.2 9.0 92 997.4 3.8 WSW 8.3 0.0 0.2
08:35 10.2 9.0 92 997.5 3.8 W 8.3 0.0 0.2
08:36 10.2 9.0 92 997.5 3.8 WSW 8.3 0.0 0.2
08:37 10.2 9.0 92 997.4 4.5 W 8.3 0.0 0.2
08:38 10.2 9.0 92 997.3 5.4 NW 6.9 0.0 0.2
08:40 10.3 9.1 92 997.5 6.0 WSW 6.0 0.0 0.2
08:41 10.3 9.1 92 997.5 5.4 W 6.0 0.0 0.2
08:42 10.3 9.1 92 997.4 6.0 WSW 6.0 0.0 0.2
08:43 10.3 9.1 92 997.5 4.5 W 6.0 0.0 0.2
08:44 10.3 9.1 92 997.5 5.4 W 6.0 0.0 0.2
08:45 10.3 9.1 92 997.6 5.4 WSW 6.0 0.0 0.2
08:46 10.3 9.1 92 997.5 5.4 WSW 6.0 0.0 0.2
08:47 10.4 9.2 92 997.6 6.9 WSW 6.9 0.0 0.2
08:48 10.4 9.2 92 997.6 6.9 WSW 6.9 0.0 0.2
08:49 10.4 9.0 91 997.5 5.4 S 6.9 0.0 0.2
08:50 10.4 9.2 92 997.6 3.8 W 6.9 0.0 0.2
08:51 10.4 9.2 92 997.6 4.5 W 6.9 0.0 0.2
08:52 10.4 9.2 92 997.6 6.0 WSW 6.9 0.0 0.2
08:54 10.4 9.2 92 997.6 5.4 W 6.9 0.0 0.2
08:55 10.5 9.3 92 997.6 5.4 NW 6.9 0.0 0.2
08:56 10.5 9.3 92 997.6 5.4 W 6.9 0.0 0.2
08:57 10.5 9.1 91 997.5 4.5 W 6.9 0.0 0.2
08:58 10.5 9.3 92 997.5 4.5 W 6.9 0.0 0.2
08:59 10.5 9.3 92 997.5 4.5 WSW 6.0 0.0 0.2
09:00 10.6 9.4 92 997.5 5.4 W 6.0 0.0 0.2
09:01 10.6 9.4 92 997.6 5.4 W 6.0 0.0 0.2
09:02 10.6 9.4 92 997.5 5.4 W 6.0 0.0 0.2
09:03 10.6 9.4 92 997.5 5.4 W 5.4 0.0 0.2
09:04 10.6 9.4 92 997.5 5.4 W 5.4 0.0 0.2
09:05 10.6 9.4 92 997.7 5.4 W 5.4 0.0 0.2
09:06 10.6 9.2 91 997.6 5.4 WSW 5.4 0.0 0.2
09:07 10.7 9.3 91 997.7 5.4 WSW 6.0 0.0 0.2
09:08 10.7 9.3 91 997.8 5.4 WSW 6.0 0.0 0.2
09:09 10.7 9.3 91 997.6 5.4 W 6.0 0.0 0.2
09:10 10.7 9.3 91 997.7 5.4 WSW 6.0 0.0 0.2
09:11 10.7 9.3 91 997.8 3.8 WSW 6.0 0.0 0.2
09:12 10.8 9.4 91 997.8 5.4 W 6.0 0.0 0.2
09:13 10.8 9.4 91 997.9 6.0 WSW 6.0 0.0 0.2
09:14 10.8 9.4 91 997.9 5.4 WSW 6.0 0.0 0.2
09:15 10.9 9.5 91 997.8 6.9 W 6.9 0.0 0.2
09:16 10.8 9.4 91 997.8 6.9 WSW 6.9 0.0 0.2
09:18 10.9 9.5 91 997.8 3.8 W 6.9 0.0 0.2
09:19 10.9 9.5 91 997.7 5.4 WNW 6.9 0.0 0.2
09:20 10.9 9.5 91 997.8 3.1 W 6.9 0.0 0.2
09:21 10.9 9.5 91 997.8 3.1 WSW 6.9 0.0 0.2
09:22 11.0 9.6 91 997.8 4.5 W 6.9 0.0 0.2
09:23 11.0 9.6 91 997.8 4.5 W 6.9 0.0 0.2
09:24 11.0 9.6 91 997.9 3.1 WNW 6.9 0.0 0.2
09:25 11.0 9.6 91 997.8 3.8 WSW 6.9 0.0 0.2
09:26 11.1 9.7 91 997.7 3.8 NNW 5.4 0.0 0.2
09:27 11.0 9.6 91 998.0 3.8 WSW 5.4 0.0 0.2
09:28 11.1 9.7 91 997.9 3.1 W 5.4 0.0 0.2
09:29 11.1 9.7 91 997.8 6.9 WSW 6.9 0.0 0.2
09:30 11.1 9.7 91 997.9 5.4 W 6.9 0.0 0.2
09:32 11.2 9.8 91 998.0 4.5 WSW 6.9 0.0 0.2
09:33 11.2 9.8 91 997.9 3.8 WSW 6.9 0.0 0.2
09:34 11.2 9.6 90 997.7 4.5 NW 6.9 0.0 0.2
09:35 11.2 9.6 90 997.8 4.5 NW 6.9 0.0 0.2
09:36 11.2 9.6 90 997.9 3.8 WSW 6.9 0.0 0.2
09:37 11.3 9.7 90 997.9 4.5 W 6.9 0.0 0.2
09:38 11.2 9.6 90 997.8 4.5 W 6.9 0.0 0.2
09:39 11.2 9.6 90 998.0 4.5 WSW 6.9 0.0 0.2
09:40 11.3 9.7 90 997.8 4.5 WSW 5.4 0.0 0.2
09:41 11.3 9.7 90 998.0 5.4 W 5.4 0.0 0.2
09:42 11.3 9.7 90 997.9 4.5 NW 5.4 0.0 0.2
09:43 11.3 9.7 90 997.9 3.1 W 5.4 0.0 0.2
09:44 11.3 9.7 90 997.7 5.4 W 5.4 0.0 0.2
09:46 11.3 9.6 89 998.0 3.8 W 5.4 0.0 0.2
09:47 11.3 9.6 89 998.0 5.4 W 5.4 0.0 0.2
09:48 11.3 9.6 89 998.0 4.5 W 5.4 0.0 0.2
09:49 11.3 9.6 89 998.0 4.5 NW 5.4 0.0 0.2
09:50 11.3 9.6 89 997.9 3.8 WSW 5.4 0.0 0.2
09:51 11.3 9.6 89 997.9 3.8 WSW 5.4 0.0 0.2
09:52 11.3 9.6 89 997.9 3.8 WSW 5.4 0.0 0.2
09:53 11.3 9.6 89 998.0 4.5 W 5.4 0.0 0.2
09:54 11.3 9.6 89 998.0 5.4 W 5.4 0.0 0.2
09:55 11.3 9.4 88 998.1 3.1 W 5.4 0.0 0.2
09:56 11.3 9.4 88 998.1 5.4 WSW 5.4 0.0 0.2
09:57 11.3 9.4 88 998.1 4.5 W 5.4 0.0 0.2
09:58 11.3 9.4 88 998.1 4.5 WSW 5.4 0.0 0.2
09:59 11.3 9.4 88 998.0 3.8 WSW 5.4 0.0 0.2
10:00 11.3 9.4 88 998.1 3.8 WSW 5.4 0.0 0.2
10:01 11.3 9.4 88 998.0 3.8 WSW 5.4 0.0 0.2
10:02 11.3 9.4 88 998.1 3.8 WSW 5.4 0.0 0.2
10:03 11.3 9.4 88 997.9 3.8 WSW 5.4 0.0 0.2
10:04 11.3 9.4 88 998.1 3.8 WSW 5.4 0.0 0.2
10:05 11.3 9.4 88 997.9 3.8 WSW 5.4 0.0 0.2
10:06 11.4 9.5 88 998.0 4.5 W 5.4 0.0 0.2
10:07 11.4 9.5 88 998.1 6.9 W 6.9 0.0 0.2
10:08 11.4 9.5 88 998.0 5.4 WSW 6.9 0.0 0.2
10:09 11.5 9.4 87 998.1 6.9 S 6.9 0.0 0.2
10:10 11.5 9.6 88 998.0 7.6 WSW 7.6 0.0 0.2
10:11 11.5 9.4 87 998.0 7.6 WSW 7.6 0.0 0.2
10:12 11.5 9.4 87 998.0 6.9 WSW 8.3 0.0 0.2
10:14 11.6 9.5 87 998.1 6.9 NW 9.2 0.0 0.2
10:15 11.6 9.5 87 998.2 9.2 W 9.2 0.0 0.2
10:16 11.6 9.5 87 998.3 6.9 NW 9.2 0.0 0.2
10:17 11.6 9.5 87 998.2 6.0 W 9.2 0.0 0.2
10:18 11.7 9.6 87 998.2 9.2 WSW 9.2 0.0 0.2
10:19 11.7 9.6 87 998.2 9.2 WSW 9.2 0.0 0.2
10:20 11.7 9.6 87 998.3 7.6 W 9.2 0.0 0.2
10:21 11.8 9.7 87 998.2 9.2 WSW 9.2 0.0 0.2
10:22 11.8 9.7 87 998.2 7.6 WSW 9.2 0.0 0.2
10:23 11.8 9.7 87 998.3 10.7 WSW 10.7 0.0 0.2
10:24 11.9 9.8 87 998.2 6.9 W 10.7 0.0 0.2
10:25 11.9 9.8 87 998.2 6.9 WSW 10.7 0.0 0.2
10:26 11.9 9.8 87 998.2 6.0 W 10.7 0.0 0.2
10:28 12.0 9.9 87 998.2 6.0 W 10.7 0.0 0.2
10:29 12.0 9.9 87 998.3 8.3 WSW 10.7 0.0 0.2
10:30 12.1 10.0 87 998.3 8.3 WSW 10.7 0.0 0.2
10:31 12.1 10.0 87 998.2 11.4 W 11.4 0.0 0.2
10:32 12.2 10.1 87 998.2 9.8 NW 11.4 0.0 0.2
10:33 12.2 10.1 87 998.3 12.1 W 12.1 0.0 0.2
10:34 12.2 10.1 87 998.1 15.2 W 15.2 0.0 0.2
10:35 12.3 10.2 87 998.2 11.4 W 15.2 0.0 0.2
10:36 12.3 10.2 87 998.2 12.1 WSW 15.2 0.0 0.2
10:37 12.3 10.0 86 998.3 13.6 W 15.2 0.0 0.2
10:38 12.2 9.9 86 998.3 10.7 NW 15.2 0.0 0.2
10:39 12.2 9.9 86 998.5 7.6 W 15.2 0.0 0.2
10:40 12.2 9.9 86 998.1 9.2 W 15.2 0.0 0.2
10:42 12.1 9.8 86 998.3 7.6 W 15.2 0.0 0.2
10:43 12.1 9.8 86 998.4 12.1 WSW 15.2 0.0 0.2
10:48 12.0 9.6 85 998.5 10.7 W 12.1 0.0 0.2
10:49 12.0 9.6 85 998.5 11.4 WNW 12.1 0.0 0.2
10:50 12.0 9.6 85 998.5 9.8 WSW 12.1 0.0 0.2
10:51 12.0 9.6 85 998.5 10.7 WNW 12.1 0.0 0.2
10:52 12.0 9.6 85 998.5 9.8 WSW 12.1 0.0 0.2
10:55 11.9 9.5 85 998.5 9.2 W 12.1 0.0 0.2
10:56 11.9 9.5 85 998.5 7.6 WSW 12.1 0.0 0.2
10:57 11.9 9.5 85 998.5 6.9 N 12.1 0.0 0.2
10:58 11.9 9.5 85 998.4 8.3 WSW 12.1 0.0 0.2
10:59 11.9 9.5 85 998.5 10.7 WSW 12.1 0.0 0.2
11:00 11.8 9.2 84 998.5 9.2 W 12.1 0.0 0.2
11:01 11.8 9.2 84 998.5 9.2 W 12.1 0.0 0.2
11:02 11.8 9.2 84 998.7 9.2 W 12.1 0.0 0.2
11:03 11.8 9.2 84 998.4 9.2 W 12.1 0.0 0.2
11:04 11.8 9.2 84 998.5 9.2 W 10.7 0.0 0.2
11:05 11.8 9.2 84 998.4 9.2 W 10.7 0.0 0.2
11:06 11.9 9.3 84 998.5 6.0 W 10.7 0.0 0.2
11:07 11.8 9.0 83 998.4 6.9 W 10.7 0.0 0.2
11:08 11.9 9.1 83 998.5 6.9 NW 10.7 0.0 0.2
11:09 11.9 9.1 83 998.5 6.9 NW 9.8 0.0 0.2
11:10 11.8 9.0 83 998.5 6.9 N 9.2 0.0 0.2
11:11 11.9 9.1 83 998.5 7.6 N 9.2 0.0 0.2
11:12 11.9 9.1 83 998.4 6.9 W 9.2 0.0 0.2
11:13 11.9 8.9 82 998.4 6.0 NW 9.2 0.0 0.2
11:14 11.9 8.9 82 998.2 6.0 NW 9.2 0.0 0.2
11:16 12.0 9.0 82 998.5 6.9 N 7.6 0.0 0.2
11:17 12.0 9.0 82 998.4 6.0 N 7.6 0.0 0.2
11:18 12.1 9.1 82 998.4 4.5 W 7.6 0.0 0.2
11:19 12.0 9.0 82 998.5 4.5 W 7.6 0.0 0.2
11:20 12.1 9.1 82 998.4 5.4 W 7.6 0.0 0.2
11:21 12.1 9.1 82 998.4 5.4 W 6.9 0.0 0.2
11:22 12.1 9.1 82 998.4 6.9 NNW 6.9 0.0 0.2
11:23 12.1 9.1 82 998.5 6.0 NNW 6.9 0.0 0.2
11:24 12.2 9.0 81 998.6 4.5 W 6.9 0.0 0.2
11:25 12.2 9.0 81 998.5 6.0 N 6.9 0.0 0.2
11:26 12.2 9.0 81 998.4 5.4 NW 6.9 0.0 0.2
11:27 12.2 9.0 81 998.6 6.9 WSW 6.9 0.0 0.2
11:28 12.2 9.0 81 998.5 4.5 WNW 6.9 0.0 0.2
11:29 12.2 9.0 81 998.4 5.4 NW 6.9 0.0 0.2
11:30 12.2 9.0 81 998.6 3.8 NW 6.9 0.0 0.2
11:31 12.2 9.0 81 998.5 3.8 NW 6.9 0.0 0.2
11:32 12.2 9.0 81 998.6 3.8 W 6.9 0.0 0.2
11:33 12.3 9.1 81 998.5 5.4 W 6.9 0.0 0.2
11:37 12.5 9.3 81 998.7 9.2 W 9.2 0.0 0.2
11:38 12.6 9.4 81 998.4 6.9 W 9.2 0.0 0.2
11:39 12.7 9.5 81 998.4 6.0 W 9.2 0.0 0.2
11:40 12.7 9.5 81 998.6 6.9 W 9.2 0.0 0.2
11:41 12.7 9.3 80 998.6 7.6 W 9.2 0.0 0.2
11:42 12.7 9.3 80 998.7 9.2 N 9.2 0.0 0.2
11:43 12.7 9.3 80 998.5 6.0 N 9.2 0.0 0.2
11:44 12.8 9.4 80 998.5 7.6 WSW 9.2 0.0 0.2
11:45 12.8 9.4 80 998.5 8.3 N 9.2 0.0 0.2
11:46 12.9 9.5 80 998.5 10.7 W 10.7 0.0 0.2
11:47 12.9 9.5 80 998.6 9.2 NW 10.7 0.0 0.2
11:48 13.0 9.4 79 998.6 10.7 NW 10.7 0.0 0.2
11:49 13.1 9.5 79 998.7 6.9 NW 10.7 0.0 0.2
11:51 13.2 9.6 79 998.6 8.3 SW 10.7 0.0 0.2
11:52 13.3 9.7 79 998.7 8.3 W 10.7 0.0 0.2
11:53 13.3 9.5 78 998.6 6.0 W 10.7 0.0 0.2
11:54 13.4 9.6 78 998.6 7.6 SW 10.7 0.0 0.2
11:55 13.5 9.7 78 998.7 6.0 SW 10.7 0.0 0.2
11:56 13.5 9.7 78 998.7 6.0 SW 10.7 0.0 0.2
11:57 13.6 9.8 78 998.6 6.9 W 10.7 0.0 0.2
11:58 13.6 9.8 78 998.5 6.0 W 8.3 0.0 0.2
11:59 13.7 9.7 77 998.7 4.5 W 8.3 0.0 0.2
12:00 13.7 9.7 77 998.7 6.0 NW 8.3 0.0 0.2
12:01 13.8 9.8 77 998.7 6.0 W 8.3 0.0 0.2
12:02 13.8 9.8 77 998.8 6.0 W 8.3 0.0 0.2
12:03 13.8 9.8 77 998.7 6.0 W 7.6 0.0 0.2
12:05 13.8 9.8 77 998.7 6.0 W 7.6 0.0 0.2
12:06 14.1 9.9 76 998.8 6.9 W 7.6 0.0 0.2
12:07 14.1 9.7 75 998.7 9.2 WNW 9.2 0.0 0.2
12:08 14.1 9.7 75 998.7 12.1 SW 12.1 0.0 0.2
12:09 14.2 9.8 75 998.7 9.2 SW 12.1 0.0 0.2
12:10 14.2 9.8 75 998.8 9.8 SW 12.1 0.0 0.2
12:11 14.2 9.8 75 998.7 7.6 W 12.1 0.0 0.2
12:12 14.2 9.8 75 998.7 4.5 SW 12.1 0.0 0.2
12:13 14.4 10.0 75 998.7 6.0 NW 12.1 0.0 0.2
12:14 14.4 10.0 75 998.7 6.0 NW 12.1 0.0 0.2
12:15 14.5 10.1 75 998.7 6.0 NW 12.1 0.0 0.2
12:16 14.5 10.1 75 998.7 4.5 SW 12.1 0.0 0.2
12:17 14.6 10.0 74 998.7 12.1 WNW 12.1 0.0 0.2
12:19 14.7 10.1 74 998.7 6.9 SW 12.1 0.0 0.2
12:20 14.7 9.9 73 998.7 5.4 NW 12.1 0.0 0.2
12:21 14.6 9.8 73 998.8 5.4 SW 12.1 0.0 0.2
12:22 14.6 9.8 73 998.6 11.4 NW 12.1 0.0 0.2
12:23 14.6 9.8 73 998.7 9.8 W 12.1 0.0 0.2
12:24 14.6 9.8 73 998.7 9.8 W 12.1 0.0 0.2
12:25 14.5 9.5 72 998.8 5.4 W 12.1 0.0 0.2
12:26 14.4 9.4 72 998.8 8.3 W 12.1 0.0 0.2
12:27 14.4 9.4 72 998.9 10.7 SW 12.1 0.0 0.2
12:28 14.3 9.3 72 998.7 8.3 W 11.4 0.0 0.2
12:29 14.2 9.2 72 998.7 8.3 N 11.4 0.0 0.2
12:30 14.1 9.1 72 998.8 6.9 SW 11.4 0.0 0.2
12:31 14.1 9.1 72 998.9 6.9 W 11.4 0.0 0.2
12:33 13.9 8.7 71 998.8 6.9 W 10.7 0.0 0.2
12:34 13.8 8.8 72 998.8 6.0 NW 10.7 0.0 0.2
12:35 13.8 8.8 72 998.9 5.4 W 10.7 0.0 0.2
12:36 13.7 8.5 71 998.8 6.9 W 10.7 0.0 0.2
12:37 13.7 8.5 71 998.8 10.7 W 10.7 0.0 0.2
12:38 13.7 8.5 71 998.7 6.9 SW 10.7 0.0 0.2
12:39 13.6 8.4 71 998.8 5.4 W 10.7 0.0 0.2
12:40 13.6 8.7 72 998.9 4.5 SW 10.7 0.0 0.2
12:41 13.6 8.7 72 998.8 5.4 W 10.7 0.0 0.2
12:42 13.6 8.7 72 998.8 6.9 W 10.7 0.0 0.2
12:43 13.6 8.7 72 998.8 7.6 W 10.7 0.0 0.2
12:44 13.6 8.7 72 998.8 8.3 SW 10.7 0.0 0.2
12:45 13.5 8.6 72 998.7 6.9 W 10.7 0.0 0.2
12:47 13.5 8.6 72 998.7 5.4 NW 8.3 0.0 0.2
12:48 13.5 8.6 72 998.8 4.5 SW 8.3 0.0 0.2
12:49 13.6 8.7 72 998.7 3.1 NE 8.3 0.0 0.2
12:50 13.6 8.9 73 998.6 6.9 W 8.3 0.0 0.2
12:51 13.7 8.7 72 998.7 6.0 W 8.3 0.0 0.2
12:52 13.7 8.7 72 998.7 6.0 W 8.3 0.0 0.2
12:53 13.9 9.1 73 998.7 5.4 W 8.3 0.0 0.2
12:54 13.9 9.1 73 998.7 4.5 WNW 7.6 0.0 0.2
12:55 14.0 9.2 73 998.8 5.4 W 6.9 0.0 0.2
12:56 14.1 9.3 73 998.7 8.3 NW 8.3 0.0 0.2
12:57 14.3 9.5 73 998.7 6.0 N 8.3 0.0 0.2
12:58 14.4 9.6 73 998.7 8.3 W 8.3 0.0 0.2
12:59 14.4 9.6 73 998.7 9.2 W 9.2 0.0 0.2
13:01 14.6 9.8 73 998.8 9.8 W 9.8 0.0 0.2
13:02 14.7 9.7 72 998.8 7.6 W 9.8 0.0 0.2
13:03 14.6 9.6 72 998.8 7.6 SW 9.8 0.0 0.2
13:04 14.6 9.4 71 998.7 6.0 W 9.8 0.0 0.2
13:05 14.6 9.4 71 998.8 5.4 W 9.8 0.0 0.2
13:07 14.5 9.3 71 998.7 7.6 NW 9.8 0.0 0.2
13:08 14.4 9.2 71 998.7 5.4 W 9.8 0.0 0.2
13:09 14.3 8.9 70 998.8 7.6 NW 9.8 0.0 0.2
13:10 14.3 8.9 70 998.7 6.0 NW 9.8 0.0 0.2
13:11 14.2 8.8 70 998.7 4.5 SW 9.8 0.0 0.2
13:12 14.2 8.8 70 998.8 7.6 WNW 9.8 0.0 0.2
13:13 14.1 8.7 70 998.7 4.5 W 7.6 0.0 0.2
13:14 14.1 8.9 71 998.8 3.1 W 7.6 0.0 0.2
13:15 14.2 9.0 71 998.7 3.1 W 7.6 0.0 0.2
13:16 14.2 9.0 71 998.9 3.8 W 7.6 0.0 0.2
13:17 14.3 9.1 71 998.8 7.6 W 7.6 0.0 0.2
13:18 14.4 9.2 71 998.8 8.3 W 10.7 0.0 0.2
13:19 14.4 9.2 71 998.8 9.2 NW 10.7 0.0 0.2
13:20 14.4 9.2 71 998.8 9.2 NW 10.7 0.0 0.2
13:21 14.4 9.0 70 998.9 7.6 W 10.7 0.0 0.2
13:22 14.4 9.0 70 998.9 5.4 SW 10.7 0.0 0.2
13:23 14.4 9.0 70 998.7 3.8 SW 10.7 0.0 0.2
13:24 14.3 8.9 70 998.7 6.9 W 10.7 0.0 0.2
13:25 14.2 8.6 69 998.8 6.0 W 10.7 0.0 0.2
13:26 14.2 8.6 69 998.8 6.0 W 10.7 0.0 0.2
13:27 14.2 8.6 69 998.8 6.0 NW 10.7 0.0 0.2
13:28 14.2 8.8 70 998.8 6.9 N 9.2 0.0 0.2
13:29 14.3 8.7 69 998.8 6.0 WNW 9.2 0.0 0.2
13:30 14.3 8.7 69 998.8 10.7 WNW 10.7 0.0 0.2
13:31 14.3 8.7 69 998.8 5.4 W 10.7 0.0 0.2
13:32 14.4 8.8 69 998.7 6.0 SW 10.7 0.0 0.2
13:33 14.4 8.8 69 998.7 5.4 SW 10.7 0.0 0.2
13:34 14.4 8.8 69 999.0 4.5 NW 10.7 0.0 0.2
13:35 14.5 8.9 69 998.9 6.0 W 10.7 0.0 0.2
13:36 14.5 8.9 69 998.8 7.6 NW 10.7 0.0 0.2
13:37 14.6 9.0 69 998.7 8.3 NW 10.7 0.0 0.2
13:38 14.6 9.0 69 998.9 6.9 NW 10.7 0.0 0.2
13:39 14.7 9.1 69 998.9 9.2 NW 10.7 0.0 0.2
13:40 14.7 9.1 69 998.9 8.3 NW 10.7 0.0 0.2
13:41 14.8 9.2 69 998.8 8.3 NW 9.2 0.0 0.2
13:43 14.9 9.1 68 998.8 7.6 NW 9.2 0.0 0.2
13:44 15.0 9.1 68 999.0 6.9 W 9.2 0.0 0.2
13:45 15.0 8.9 67 998.9 6.0 WNW 9.2 0.0 0.2
13:46 15.0 8.9 67 998.9 9.8 W 9.8 0.0 0.2
13:47 15.0 8.9 67 999.0 9.2 W 9.8 0.0 0.2
13:48 15.0 8.9 67 999.0 9.2 W 9.8 0.0 0.2
13:49 14.9 8.6 66 998.9 9.2 NW 9.8 0.0 0.2
13:50 14.9 8.6 66 999.0 6.0 SW 9.8 0.0 0.2
13:51 14.8 8.5 66 998.9 5.4 W 9.8 0.0 0.2
13:52 14.8 8.5 66 999.0 7.6 SW 9.8 0.0 0.2
13:53 14.8 8.3 65 999.0 9.2 WSW 9.8 0.0 0.2
13:54 14.8 8.3 65 999.0 8.3 SW 9.8 0.0 0.2
13:55 14.8 8.3 65 999.0 6.9 SW 9.8 0.0 0.2
13:57 14.8 8.3 65 998.9 6.0 E 9.2 0.0 0.2
13:58 14.9 8.4 65 999.0 3.8 NW 9.2 0.0 0.2
13:59 15.0 8.7 66 999.0 5.4 W 9.2 0.0 0.2
14:00 15.0 8.7 66 999.0 9.2 WSW 9.2 0.0 0.2
14:01 15.0 8.7 66 999.0 9.2 WSW 9.2 0.0 0.2
14:02 15.0 8.7 66 999.0 9.2 WSW 9.2 0.0 0.2
14:03 15.0 8.7 66 999.0 9.2 WSW 9.2 0.0 0.2
14:04 15.0 8.7 66 999.1 9.2 WSW 9.2 0.0 0.2
14:05 15.0 8.7 66 999.0 9.2 WSW 9.2 0.0 0.2
14:06 15.1 8.6 65 999.1 4.5 W 9.2 0.0 0.2
14:07 15.1 8.3 64 999.0 3.8 W 9.2 0.0 0.2
14:08 15.1 8.3 64 999.0 3.8 WNW 9.2 0.0 0.2
14:09 15.0 8.3 64 999.0 4.5 NW 9.2 0.0 0.2
14:11 14.9 8.2 64 999.1 3.1 SW 9.2 0.0 0.2
14:12 14.8 8.1 64 999.1 3.8 W 9.2 0.0 0.2
14:13 14.8 8.1 64 999.1 6.0 SW 9.2 0.0 0.2
14:14 14.7 8.0 64 999.1 6.0 W 9.2 0.0 0.2
14:15 14.7 8.0 64 999.0 6.9 SW 9.2 0.0 0.2
14:16 14.8 8.1 64 999.0 7.6 W 9.2 0.0 0.2
14:17 14.8 8.1 64 999.1 8.3 NW 9.2 0.0 0.2
14:18 14.8 8.1 64 999.1 5.4 W 9.2 0.0 0.2
14:19 14.8 8.1 64 999.1 5.4 NW 9.2 0.0 0.2
14:20 14.8 7.8 63 999.1 6.9 NW 9.2 0.0 0.2
14:21 14.8 8.1 64 999.2 6.0 W 9.2 0.0 0.2
14:22 14.8 8.1 64 999.2 4.5 NW 9.2 0.0 0.2
14:23 14.8 8.1 64 999.1 3.8 N 9.2 0.0 0.2
14:25 14.8 8.1 64 999.2 7.6 SW 8.3 0.0 0.2
14:26 14.8 8.1 64 999.2 8.3 W 8.3 0.0 0.2
14:27 14.7 8.0 64 999.1 8.3 N 8.3 0.0 0.2
14:28 14.7 8.0 64 999.2 6.0 N 8.3 0.0 0.2
14:29 14.6 7.9 64 999.0 5.4 W 8.3 0.0 0.2
14:30 14.5 7.8 64 999.0 6.0 W 8.3 0.0 0.2
14:31 14.5 7.8 64 999.0 6.0 W 8.3 0.0 0.2
14:32 14.5 7.8 64 999.2 5.4 W 8.3 0.0 0.2
14:33 14.4 7.7 64 999.2 6.0 N 8.3 0.0 0.2
14:34 14.3 7.6 64 999.2 5.4 SW 8.3 0.0 0.2
14:35 14.3 7.6 64 999.2 8.3 SW 8.3 0.0 0.2
14:36 14.2 7.5 64 999.1 6.0 W 8.3 0.0 0.2
14:37 14.2 7.5 64 999.2 4.5 SW 8.3 0.0 0.2
14:38 14.1 7.4 64 999.1 5.4 W 8.3 0.0 0.2
14:40 14.0 7.3 64 999.1 4.5 W 8.3 0.0 0.2
14:41 14.0 7.3 64 999.1 4.5 SW 8.3 0.0 0.2
14:42 13.9 7.4 65 999.1 5.4 W 8.3 0.0 0.2
14:43 13.9 7.4 65 999.1 3.8 W 8.3 0.0 0.2
14:44 13.8 7.3 65 999.2 3.8 WSW 8.3 0.0 0.2
14:45 13.8 7.3 65 999.1 3.8 WSW 6.0 0.0 0.2
14:46 13.8 7.3 65 999.1 6.0 WNW 6.0 0.0 0.2
14:47 13.7 7.2 65 999.1 3.8 W 6.0 0.0 0.2
14:48 13.7 7.2 65 999.2 3.8 NW 6.0 0.0 0.2
14:49 13.7 7.2 65 999.1 3.8 SW 6.0 0.0 0.2
14:50 13.7 7.2 65 999.2 4.5 NW 6.0 0.0 0.2
14:51 13.7 7.2 65 999.1 4.5 W 6.0 0.0 0.2
14:52 13.7 7.2 65 999.1 3.8 W 6.0 0.0 0.2
14:53 13.7 7.2 65 999.1 6.9 W 6.9 0.0 0.2
14:54 13.6 7.1 65 999.0 5.4 NW 6.9 0.0 0.2
14:55 13.6 7.1 65 999.1 5.4 W 6.9 0.0 0.2
14:56 13.6 7.1 65 999.0 3.8 NW 6.9 0.0 0.2
14:57 13.6 7.1 65 999.0 6.0 W 6.9 0.0 0.2
14:58 13.5 7.1 65 999.3 3.1 WSW 6.9 0.0 0.2
14:59 13.5 7.3 66 999.1 5.4 W 6.9 0.0 0.2
15:00 13.5 7.3 66 999.1 5.4 W 6.9 0.0 0.2
15:01 13.5 7.1 65 999.1 4.5 W 6.9 0.0 0.2
15:02 13.5 7.1 65 999.1 4.5 W 6.9 0.0 0.2
15:03 13.5 7.1 65 999.1 4.5 W 6.9 0.0 0.2
15:04 13.5 7.1 65 999.1 4.5 W 6.9 0.0 0.2
15:05 13.5 7.1 65 999.1 4.5 W 6.0 0.0 0.2
15:06 13.5 7.3 66 999.1 4.5 NW 6.0 0.0 0.2
15:07 13.5 7.3 66 999.1 6.0 NW 6.0 0.0 0.2
15:08 13.5 7.3 66 999.2 6.9 NW 6.9 0.0 0.2
15:09 13.5 7.3 66 999.2 4.5 S 6.9 0.0 0.2
15:10 13.5 7.3 66 999.0 8.3 W 9.2 0.0 0.2
15:11 13.5 7.3 66 999.2 4.5 NW 9.2 0.0 0.2
15:12 13.5 7.3 66 999.2 4.5 NW 9.2 0.0 0.2
15:13 13.5 7.3 66 999.2 4.5 W 9.2 0.0 0.2
15:14 13.5 7.3 66 999.0 7.6 ENE 9.2 0.0 0.2
15:15 13.5 7.3 66 999.2 3.8 W 9.2 0.0 0.2
15:16 13.5 7.3 66 999.2 6.0 N 9.2 0.0 0.2
15:17 13.5 7.3 66 999.2 6.9 W 9.2 0.0 0.2
15:18 13.5 7.3 66 999.2 7.6 N 9.2 0.0 0.2
15:19 13.5 7.3 66 999.2 6.0 W 9.2 0.0 0.2
15:20 13.5 7.3 66 999.3 4.5 W 8.3 0.0 0.2
15:21 13.5 7.3 66 999.1 5.4 W 8.3 0.0 0.2
15:22 13.5 7.3 66 999.2 5.4 NW 8.3 0.0 0.2
15:23 13.5 7.3 66 999.3 4.5 WSW 7.6 0.0 0.2
15:24 13.5 7.3 66 999.2 4.5 SW 7.6 0.0 0.2
15:25 13.5 7.3 66 999.3 3.8 NW 7.6 0.0 0.2
15:26 13.5 7.3 66 999.2 5.4 SE 7.6 0.0 0.2
15:27 13.5 7.3 66 999.3 5.4 W 7.6 0.0 0.2
15:28 13.5 7.3 66 999.2 7.6 NW 7.6 0.0 0.2
15:29 13.6 7.6 67 999.2 7.6 NW 7.6 0.0 0.2
15:30 13.7 7.7 67 999.0 8.3 NW 8.3 0.0 0.2
15:31 13.8 7.8 67 998.9 6.0 NW 8.3 0.0 0.2
15:32 13.9 7.9 67 998.9 6.9 W 8.3 0.0 0.2
15:33 14.1 8.3 68 999.1 4.5 W 8.3 0.0 0.2
15:34 14.3 8.5 68 999.2 5.4 N 8.3 0.0 0.2
15:35 14.4 8.6 68 999.0 4.5 W 8.3 0.0 0.2
15:36 14.5 8.5 67 999.0 4.5 NW 8.3 0.0 0.2
15:37 14.6 8.5 67 998.9 6.0 NW 8.3 0.0 0.2
15:38 14.7 8.6 67 999.0 9.2 NW 9.2 0.0 0.2
15:39 14.7 8.4 66 999.1 8.3 W 9.2 0.0 0.2
15:40 14.7 8.4 66 999.1 8.3 W 9.2 0.0 0.2
15:41 14.8 8.5 66 999.0 7.6 SW 9.2 0.0 0.2
15:42 14.9 8.6 66 999.1 6.9 W 9.2 0.0 0.2
15:43 14.9 8.4 65 999.1 6.9 W 9.2 0.0 0.2
15:44 14.9 8.4 65 999.2 9.2 S 9.2 0.0 0.2
15:45 14.9 8.4 65 999.0 6.0 SW 9.2 0.0 0.2
15:46 14.9 8.2 64 999.2 6.9 WSW 9.2 0.0 0.2
15:47 14.9 8.2 64 999.1 6.0 W 9.2 0.0 0.2
15:48 14.8 8.1 64 999.1 6.0 W 9.2 0.0 0.2
15:49 14.8 8.1 64 999.2 8.3 NW 9.2 0.0 0.2
15:50 14.9 8.2 64 999.1 8.3 SW 9.2 0.0 0.2
15:51 14.9 8.2 64 999.0 8.3 NW 9.2 0.0 0.2
15:52 14.9 8.2 64 999.1 9.2 NE 9.2 0.0 0.2
15:53 15.0 8.3 64 999.2 7.6 NW 9.2 0.0 0.2
15:54 15.0 8.3 64 999.1 6.9 W 9.2 0.0 0.2
15:55 15.0 8.3 64 999.1 7.6 N 9.2 0.0 0.2
15:56 15.1 8.1 63 999.1 7.6 W 9.2 0.0 0.2
15:57 15.1 8.1 63 999.1 6.9 NW 9.2 0.0 0.2
15:58 15.0 8.0 63 999.0 6.0 NW 9.2 0.0 0.2
15:59 15.0 8.0 63 999.0 5.4 SW 9.2 0.0 0.2
16:00 15.0 8.0 63 999.1 4.5 NW 9.2 0.0 0.2
16:01 15.0 8.0 63 999.0 4.5 SW 9.2 0.0 0.2
16:02 15.0 8.0 63 999.1 4.5 SW 9.2 0.0 0.2
16:03 15.0 8.0 63 999.1 4.5 SW 7.6 0.0 0.2
16:04 15.0 8.0 63 999.2 4.5 SW 7.6 0.0 0.2
16:05 14.8 7.8 63 999.2 3.1 NW 7.6 0.0 0.2
16:06 14.8 7.8 63 999.2 5.4 NW 6.9 0.0 0.2
16:07 14.9 7.9 63 999.2 4.5 NW 6.0 0.0 0.2
16:08 14.9 7.9 63 999.2 4.5 NW 6.0 0.0 0.2
16:09 15.0 8.0 63 999.1 4.5 SW 5.4 0.0 0.2
16:10 15.0 8.3 64 999.1 3.1 SW 5.4 0.0 0.2
16:11 15.1 8.3 64 999.0 3.8 W 5.4 0.0 0.2
16:12 15.1 8.3 64 999.2 6.0 WSW 6.0 0.0 0.2
16:13 15.2 8.2 63 999.2 8.3 SW 8.3 0.0 0.2
16:14 15.2 8.2 63 999.2 6.0 W 8.3 0.0 0.2
16:15 15.2 8.2 63 999.2 6.9 SW 8.3 0.0 0.2
16:16 15.2 8.0 62 999.2 9.8 WSW 9.8 0.0 0.2
16:17 15.2 8.0 62 999.2 7.6 W 9.8 0.0 0.2
16:18 15.2 7.7 61 999.1 9.2 W 9.8 0.0 0.2
16:19 15.1 7.6 61 999.2 6.9 W 9.8 0.0 0.2
16:20 15.1 7.6 61 999.2 5.4 W 9.8 0.0 0.2
16:21 15.0 7.3 60 999.2 6.9 W 9.8 0.0 0.2
16:22 15.0 7.3 60 999.3 5.4 SW 9.8 0.0 0.2
16:23 14.9 7.2 60 999.2 7.6 SW 9.8 0.0 0.2
16:24 14.9 7.2 60 999.2 6.9 W 9.8 0.0 0.2
16:25 14.9 7.5 61 999.1 6.9 SW 9.8 0.0 0.2
16:26 14.9 7.5 61 999.2 5.4 SW 9.8 0.0 0.2
16:27 14.9 7.5 61 999.1 4.5 SW 9.2 0.0 0.2
16:28 14.9 7.5 61 999.2 4.5 SW 9.2 0.0 0.2
16:29 14.9 7.5 61 999.2 6.0 SW 7.6 0.0 0.2
16:30 14.9 7.5 61 999.0 6.9 SW 7.6 0.0 0.2
16:31 14.9 7.5 61 999.1 5.4 S 7.6 0.0 0.2
16:32 14.9 7.5 61 999.1 4.5 WSW 7.6 0.0 0.2
16:33 14.9 7.5 61 999.2 5.4 W 7.6 0.0 0.2
16:34 14.9 7.5 61 999.0 6.0 SW 7.6 0.0 0.2
16:35 15.0 7.5 61 999.0 6.0 SW 7.6 0.0 0.2
16:36 15.0 7.5 61 999.0 6.0 SW 7.6 0.0 0.2
16:37 15.0 7.5 61 999.1 3.8 W 7.6 0.0 0.2
16:38 15.0 7.8 62 999.1 5.4 W 7.6 0.0 0.2
16:39 15.0 7.8 62 999.1 6.9 WSW 7.6 0.0 0.2
16:40 15.0 7.8 62 999.1 6.9 NW 7.6 0.0 0.2
16:41 15.1 7.6 61 999.2 6.0 SW 6.9 0.0 0.2
16:42 15.1 7.6 61 999.1 7.6 SW 7.6 0.0 0.2
16:43 15.1 7.6 61 999.1 8.3 SW 8.3 0.0 0.2
16:44 15.1 7.6 61 999.2 7.6 SW 8.3 0.0 0.2
16:45 15.1 7.4 60 999.1 6.9 W 8.3 0.0 0.2
16:46 15.1 7.4 60 999.2 6.9 W 8.3 0.0 0.2
16:47 15.0 7.3 60 999.1 5.4 NW 8.3 0.0 0.2
16:48 15.0 7.3 60 999.1 7.6 NW 8.3 0.0 0.2
16:49 15.0 7.3 60 999.2 6.9 N 8.3 0.0 0.2
16:50 15.0 7.3 60 999.2 6.0 SW 8.3 0.0 0.2
16:51 15.0 7.3 60 999.2 7.6 W 8.3 0.0 0.2
16:52 15.0 7.3 60 999.1 6.0 W 8.3 0.0 0.2
16:53 14.9 7.2 60 999.2 6.0 SW 7.6 0.0 0.2
16:54 14.9 7.2 60 999.2 4.5 W 7.6 0.0 0.2
16:55 14.9 7.2 60 999.1 6.0 W 7.6 0.0 0.2
16:56 14.9 7.2 60 999.1 6.0 SW 7.6 0.0 0.2
16:57 14.9 7.2 60 999.1 4.5 W 7.6 0.0 0.2
16:58 14.9 7.2 60 999.1 6.0 SW 7.6 0.0 0.2
16:59 14.9 7.2 60 999.2 6.0 SW 7.6 0.0 0.2
17:00 14.9 7.2 60 999.2 4.5 SW 7.6 0.0 0.2
17:01 14.9 7.2 60 999.2 4.5 SW 6.0 0.0 0.2
17:02 14.9 7.2 60 999.1 4.5 SW 6.0 0.0 0.2
17:03 14.9 7.2 60 999.2 4.5 SW 6.0 0.0 0.2
17:04 14.9 7.2 60 999.2 4.5 SW 6.0 0.0 0.2
17:05 14.9 7.2 60 999.2 4.5 SW 6.0 0.0 0.2
17:06 14.9 7.2 60 999.1 6.9 W 6.9 0.0 0.2
17:07 14.9 7.2 60 999.0 5.4 SW 6.9 0.0 0.2
17:08 14.9 7.2 60 999.1 5.4 SW 6.9 0.0 0.2
17:09 14.9 7.2 60 999.2 5.4 SW 6.9 0.0 0.2
17:10 14.8 7.1 60 999.2 6.9 SW 9.8 0.0 0.2
17:11 14.8 7.1 60 999.1 6.9 SW 9.8 0.0 0.2
17:12 14.7 7.0 60 999.1 6.0 NW 9.8 0.0 0.2
17:13 14.7 7.0 60 999.2 6.9 W 9.8 0.0 0.2
17:14 14.6 6.9 60 999.1 8.3 SW 9.8 0.0 0.2
17:15 14.6 6.9 60 999.2 9.8 N 9.8 0.0 0.2
17:16 14.6 6.9 60 999.2 8.3 SW 9.8 0.0 0.2
17:17 14.5 6.8 60 999.2 5.4 SW 9.8 0.0 0.2
17:18 14.5 6.8 60 999.2 8.3 W 9.8 0.0 0.2
17:19 14.5 6.8 60 999.1 9.8 SW 9.8 0.0 0.2
17:20 14.4 6.7 60 999.0 6.9 SW 9.8 0.0 0.2
17:21 14.3 6.6 60 999.0 6.0 SW 9.8 0.0 0.2
17:22 14.3 6.6 60 999.1 4.5 S 9.8 0.0 0.2
17:23 14.3 6.6 60 999.0 4.5 SW 9.8 0.0 0.2
17:24 14.3 6.9 61 999.2 5.4 SW 9.8 0.0 0.2
17:25 14.3 6.9 61 999.1 4.5 W 9.8 0.0 0.2
17:26 14.2 6.8 61 999.3 4.5 SSW 9.8 0.0 0.2
17:27 14.1 6.7 61 999.1 6.0 SW 9.8 0.0 0.2
17:28 14.1 6.7 61 999.2 6.0 SW 9.8 0.0 0.2
17:29 14.0 6.6 61 999.2 6.9 SW 6.9 0.0 0.2
17:30 13.9 6.5 61 999.2 6.0 W 6.9 0.0 0.2
17:31 13.9 6.5 61 999.2 6.0 W 6.9 0.0 0.2
17:32 13.8 6.4 61 999.2 3.8 SW 6.9 0.0 0.2
17:33 13.7 6.3 61 999.2 5.4 W 6.9 0.0 0.2
17:34 13.6 6.2 61 999.2 5.4 SW 6.9 0.0 0.2
17:35 13.5 6.1 61 999.2 5.4 SW 6.9 0.0 0.2
17:36 13.5 6.1 61 999.2 5.4 SW 6.9 0.0 0.2
17:37 13.4 6.0 61 999.2 4.5 W 6.9 0.0 0.2
17:38 13.3 5.9 61 999.3 4.5 SW 6.9 0.0 0.2
17:39 13.2 6.1 62 999.3 4.5 SW 6.9 0.0 0.2
17:40 13.1 6.0 62 999.4 3.8 SW 6.0 0.0 0.2
17:41 13.1 6.0 62 999.4 3.1 SW 6.0 0.0 0.2
17:42 13.0 5.9 62 999.3 4.5 SW 6.0 0.0 0.2
17:43 12.9 5.8 62 999.4 3.1 SW 5.4 0.0 0.2
17:44 12.9 5.8 62 999.3 3.1 SW 5.4 0.0 0.2
17:45 12.8 5.7 62 999.3 3.1 SW 5.4 0.0 0.2
17:46 12.8 5.7 62 999.4 3.8 SW 4.5 0.0 0.2
17:47 12.7 5.6 62 999.5 3.8 W 4.5 0.0 0.2
17:48 12.7 5.8 63 999.4 3.8 W 4.5 0.0 0.2
17:49 12.6 5.7 63 999.3 2.2 W 4.5 0.0 0.2
17:50 12.6 5.7 63 999.5 3.1 W 4.5 0.0 0.2
17:51 12.5 5.7 63 999.5 3.8 W 4.5 0.0 0.2
17:52 12.5 5.7 63 999.4 2.2 W 4.5 0.0 0.2
17:53 12.4 5.6 63 999.4 2.2 W 3.8 0.0 0.2
17:54 12.4 5.8 64 999.4 3.1 SW 3.8 0.0 0.2
17:55 12.3 5.7 64 999.6 1.6 SW 3.8 0.0 0.2
17:56 12.3 5.7 64 999.5 1.6 SW 3.8 0.0 0.2
17:57 12.3 5.7 64 999.5 2.2 SW 3.8 0.0 0.2
17:58 12.3 5.7 64 999.4 1.6 SW 3.8 0.0 0.2
17:59 12.3 5.7 64 999.4 1.6 SW 3.8 0.0 0.2
18:00 12.3 5.7 64 999.5 1.6 SW 3.8 0.0 0.2
18:01 12.3 5.9 65 999.6 0.7 SW 3.1 0.0 0.2
18:02 12.3 5.9 65 999.5 0.7 SW 3.1 0.0 0.2
18:03 12.3 5.9 65 999.5 0.7 SW 3.1 0.0 0.2
18:04 12.3 5.9 65 999.5 0.7 SW 3.1 0.0 0.2
18:05 12.3 5.9 65 999.5 0.7 SW 2.2 0.0 0.2
18:06 12.4 6.0 65 999.5 0.0 SW 2.2 0.0 0.2
18:07 12.4 6.2 66 999.4 0.0 SW 1.6 0.0 0.2
18:08 12.4 6.0 65 999.5 1.6 SW 1.6 0.0 0.2
18:09 12.4 6.2 66 999.6 1.6 SW 1.6 0.0 0.2
18:10 12.4 6.2 66 999.4 1.6 SW 2.2 0.0 0.2
18:11 12.4 6.2 66 999.6 0.7 SW 2.2 0.0 0.2
18:12 12.4 6.2 66 999.4 0.7 SW 2.2 0.0 0.2
18:13 12.4 6.2 66 999.6 0.7 SW 2.2 0.0 0.2
18:14 12.4 6.2 66 999.5 0.0 SW 2.2 0.0 0.2
18:15 12.4 6.2 66 999.4 0.0 SW 2.2 0.0 0.2
18:16 12.4 6.2 66 999.5 0.0 SW 2.2 0.0 0.2
18:17 12.3 6.1 66 999.7 0.0 SW 2.2 0.0 0.2
18:18 12.4 6.2 66 999.5 0.0 SW 2.2 0.0 0.2
18:19 12.4 6.2 66 999.5 0.0 SW 2.2 0.0 0.2
18:20 12.3 6.1 66 999.6 0.0 SW 2.2 0.0 0.2
18:21 12.3 6.1 66 999.7 1.6 SW 1.6 0.0 0.2
18:22 12.3 6.1 66 999.7 1.6 SW 1.6 0.0 0.2
18:23 12.2 6.0 66 999.7 1.6 SW 1.6 0.0 0.2
18:24 12.2 6.0 66 999.6 1.6 SW 1.6 0.0 0.2
18:25 12.2 6.0 66 999.5 1.6 SW 1.6 0.0 0.2
18:26 12.2 6.0 66 999.6 1.6 SW 1.6 0.0 0.2
18:27 12.2 6.0 66 999.6 1.6 SW 1.6 0.0 0.2
18:28 12.1 5.9 66 999.7 2.2 SW 2.2 0.0 0.2
18:29 12.1 5.9 66 999.7 1.6 SW 2.2 0.0 0.2
18:30 12.0 5.8 66 999.6 1.6 SW 2.2 0.0 0.2
18:31 12.0 5.8 66 999.6 1.6 SW 2.2 0.0 0.2
18:32 12.0 6.1 67 999.7 1.6 SW 2.2 0.0 0.2
18:33 11.9 6.0 67 999.7 1.6 SW 2.2 0.0 0.2
18:34 11.9 6.0 67 999.6 1.6 SW 2.2 0.0 0.2
18:35 11.9 6.0 67 999.7 1.6 SW 2.2 0.0 0.2
18:36 11.8 5.9 67 999.7 1.6 SW 2.2 0.0 0.2
18:37 11.8 5.9 67 999.5 0.7 SW 2.2 0.0 0.2
18:38 11.7 5.8 67 999.6 1.6 SW 1.6 0.0 0.2
18:39 11.7 5.8 67 999.7 0.7 SW 1.6 0.0 0.2
18:40 11.7 5.8 67 999.7 0.7 SW 1.6 0.0 0.2
18:41 11.7 5.8 67 999.6 0.7 SE 1.6 0.0 0.2
18:42 11.6 5.7 67 999.7 0.0 SE 1.6 0.0 0.2
18:43 11.6 5.7 67 999.7 0.0 SE 1.6 0.0 0.2
18:44 11.6 5.7 67 999.6 0.0 E 1.6 0.0 0.2
18:45 11.5 5.6 67 999.8 0.7 E 1.6 0.0 0.2
18:46 11.5 5.6 67 999.6 0.7 ENE 1.6 0.0 0.2
18:47 11.5 5.6 67 999.6 0.0 NE 1.6 0.0 0.2
18:48 11.5 5.6 67 999.7 0.0 NE 1.6 0.0 0.2
18:49 11.4 5.5 67 999.7 0.0 NE 0.7 0.0 0.2
18:50 11.4 5.7 68 999.7 0.0 NE 0.7 0.0 0.2
18:51 11.3 5.6 68 999.7 0.0 NE 0.7 0.0 0.2
18:52 11.3 5.6 68 999.6 0.0 NE 0.7 0.0 0.2
18:53 11.3 5.6 68 999.7 0.0 NE 0.7 0.0 0.2
18:54 11.2 5.5 68 999.7 0.0 NE 0.7 0.0 0.2
18:55 11.2 5.5 68 999.7 0.0 NE 0.7 0.0 0.2
18:56 11.2 5.5 68 999.7 0.0 NE 0.7 0.0 0.2
18:57 11.1 5.4 68 999.6 0.0 NE 0.0 0.0 0.2
18:58 11.1 5.4 68 999.7 0.0 NE 0.0 0.0 0.2
18:59 11.1 5.4 68 999.7 0.0 NE 0.0 0.0 0.2
19:00 11.1 5.4 68 999.7 0.0 NE 0.0 0.0 0.2
19:01 11.0 5.3 68 999.7 0.0 NE 0.0 0.0 0.2
19:02 11.0 5.3 68 999.7 0.0 NE 0.0 0.0 0.2
19:04 11.0 5.3 68 999.7 0.0 NE 0.0 0.0 0.2
19:05 11.0 5.3 68 999.8 0.0 NE 0.0 0.0 0.2
19:06 11.0 5.3 68 999.7 0.0 NE 0.0 0.0 0.2
19:08 10.9 5.4 69 999.7 0.0 NE 0.0 0.0 0.2
19:09 10.8 5.3 69 999.6 0.0 NE 0.0 0.0 0.2
19:10 10.8 5.3 69 999.6 0.0 NE 0.0 0.0 0.2
19:11 10.8 5.3 69 999.8 1.6 SE 1.6 0.0 0.2
19:12 10.8 5.3 69 999.8 1.6 SE 1.6 0.0 0.2
19:13 10.7 5.2 69 999.7 0.0 SE 1.6 0.0 0.2
19:14 10.7 5.2 69 999.7 0.0 SE 1.6 0.0 0.2
19:15 10.7 5.2 69 999.7 0.0 SE 1.6 0.0 0.2
19:16 10.7 5.2 69 999.8 0.0 SE 1.6 0.0 0.2
19:17 10.6 5.2 69 999.7 0.0 NE 1.6 0.0 0.2
19:18 10.6 5.2 69 999.8 0.7 NE 1.6 0.0 0.2
19:19 10.5 5.1 69 999.8 0.0 NE 1.6 0.0 0.2
19:21 10.5 5.3 70 999.9 0.0 NE 1.6 0.0 0.2
19:22 10.4 5.2 70 999.9 0.0 NE 0.7 0.0 0.2
19:23 10.4 5.2 70 999.7 0.0 NE 0.7 0.0 0.2
19:24 10.4 5.2 70 999.9 0.0 NE 0.7 0.0 0.2
19:25 10.4 5.2 70 999.8 0.0 NE 0.7 0.0 0.2
19:26 10.3 5.1 70 999.9 0.0 NE 0.7 0.0 0.2
19:27 10.3 5.1 70 999.9 0.0 NE 0.7 0.0 0.2
19:28 10.3 5.1 70 1000.0 0.0 NE 0.7 0.0 0.2
19:29 10.3 5.1 70 1000.0 0.0 NE 0.0 0.0 0.2
19:30 10.2 5.0 70 1000.0 0.0 NE 0.0 0.0 0.2
19:31 10.2 5.0 70 999.8 0.0 NE 0.0 0.0 0.2
19:32 10.2 5.0 70 1000.0 0.0 NE 0.0 0.0 0.2
19:33 10.2 5.2 71 999.9 0.7 NE 0.7 0.0 0.2
19:34 10.1 5.1 71 999.9 0.0 NE 0.7 0.0 0.2
19:35 10.1 5.1 71 999.8 0.0 NE 0.7 0.0 0.2
19:36 10.1 5.1 71 1000.0 0.0 NE 0.7 0.0 0.2
19:38 10.0 5.0 71 999.8 0.0 NE 0.7 0.0 0.2
19:39 10.0 5.0 71 999.9 0.0 NE 0.7 0.0 0.2
19:40 10.0 5.0 71 999.8 0.0 NE 0.7 0.0 0.2
19:41 10.0 5.0 71 1000.0 0.0 NE 0.7 0.0 0.2
19:42 9.9 4.9 71 999.8 0.0 NE 0.7 0.0 0.2
19:43 9.8 4.8 71 999.8 0.0 NE 0.0 0.0 0.2
19:44 9.8 4.8 71 999.9 0.0 NE 0.0 0.0 0.2
19:45 9.8 4.8 71 999.9 0.0 NE 0.0 0.0 0.2
19:46 9.7 4.7 71 1000.1 0.0 NE 0.0 0.0 0.2
19:47 9.7 4.7 71 1000.1 0.0 NE 0.0 0.0 0.2
19:48 9.7 4.7 71 1000.1 0.0 NE 0.0 0.0 0.2
19:49 9.7 4.7 71 999.9 0.0 NE 0.0 0.0 0.2
19:50 9.6 4.6 71 1000.1 0.0 NE 0.0 0.0 0.2
19:51 9.6 4.8 72 999.9 0.0 NE 0.0 0.0 0.2
19:52 9.6 4.6 71 999.9 0.0 NE 0.0 0.0 0.2
19:53 9.5 4.5 71 1000.1 0.0 NE 0.0 0.0 0.2
19:54 9.5 4.7 72 1000.1 0.0 NE 0.0 0.0 0.2
19:55 9.5 4.7 72 1000.2 0.0 NE 0.0 0.0 0.2
19:56 9.4 4.6 72 1000.1 0.0 NE 0.0 0.0 0.2
19:58 9.4 4.6 72 1000.2 0.0 NE 0.0 0.0 0.2
19:59 9.4 4.6 72 1000.1 0.0 NE 0.0 0.0 0.2
20:00 9.3 4.5 72 1000.1 0.0 NE 0.0 0.0 0.2
20:01 9.3 4.5 72 1000.1 0.0 NE 0.0 0.0 0.2
20:02 9.3 4.5 72 1000.1 0.0 NE 0.0 0.0 0.2
20:03 9.3 4.5 72 1000.3 0.0 NE 0.0 0.0 0.2
20:04 9.3 4.5 72 1000.1 0.0 NE 0.0 0.0 0.2
20:05 9.3 4.5 72 1000.1 0.0 NE 0.0 0.0 0.2
20:06 9.3 4.5 72 1000.1 0.0 NE 0.0 0.0 0.2
20:07 9.3 4.5 72 1000.1 0.0 NE 0.0 0.0 0.2
20:08 9.1 4.3 72 1000.2 1.6 NW 1.6 0.0 0.2
20:09 9.1 4.3 72 1000.2 0.0 NW 1.6 0.0 0.2
20:10 9.0 4.2 72 1000.2 0.0 NW 1.6 0.0 0.2
20:11 9.0 4.2 72 1000.2 0.0 NW 1.6 0.0 0.2
20:12 8.9 4.1 72 1000.1 0.0 NW 1.6 0.0 0.2
20:13 8.9 4.1 72 1000.2 0.0 NW 1.6 0.0 0.2
20:14 8.8 4.2 73 1000.1 0.0 NW 1.6 0.0 0.2
20:16 8.8 4.2 73 1000.2 0.0 NW 1.6 0.0 0.2
20:17 8.8 4.2 73 1000.2 0.0 NW 1.6 0.0 0.2
20:18 8.8 4.2 73 1000.2 0.0 NW 0.7 0.0 0.2
20:19 8.8 4.2 73 1000.2 1.6 NW 1.6 0.0 0.2
20:20 8.8 4.2 73 1000.2 0.0 NW 1.6 0.0 0.2
20:21 8.8 4.2 73 1000.3 0.0 NW 1.6 0.0 0.2
20:22 8.7 4.1 73 1000.2 0.0 NW 1.6 0.0 0.2
20:23 8.7 4.1 73 1000.2 0.0 NW 1.6 0.0 0.2
20:24 8.7 4.1 73 1000.2 0.0 NW 1.6 0.0 0.2
20:25 8.7 4.1 73 1000.2 0.0 NW 1.6 0.0 0.2
20:26 8.7 4.1 73 1000.1 0.0 NW 1.6 0.0 0.2
20:27 8.7 4.1 73 1000.2 0.0 NW 1.6 0.0 0.2
20:28 8.6 4.2 74 1000.2 0.0 NW 1.6 0.0 0.2
20:29 8.6 4.2 74 1000.3 0.0 NW 1.6 0.0 0.2
20:30 8.6 4.2 74 1000.1 0.0 NW 0.0 0.0 0.2
20:31 8.6 4.2 74 1000.1 0.0 NW 0.0 0.0 0.2
20:32 8.6 4.2 74 1000.1 0.0 NW 0.0 0.0 0.2
20:33 8.6 4.2 74 1000.2 0.0 NW 0.0 0.0 0.2
20:34 8.6 4.2 74 1000.2 0.0 NW 0.0 0.0 0.2
20:35 8.6 4.2 74 1000.3 0.0 NW 0.0 0.0 0.2
20:36 8.6 4.2 74 1000.1 0.0 NW 0.0 0.0 0.2
20:37 8.5 4.1 74 1000.2 0.0 NW 0.0 0.0 0.2
20:38 8.5 4.1 74 1000.1 0.0 NW 0.0 0.0 0.2
20:39 8.5 4.1 74 1000.1 0.0 NW 0.0 0.0 0.2
20:40 8.5 4.1 74 1000.2 0.0 NW 0.0 0.0 0.2
20:41 8.5 4.1 74 1000.1 0.0 NW 0.0 0.0 0.2
20:42 8.4 4.0 74 1000.2 0.0 NW 0.0 0.0 0.2
20:43 8.4 4.0 74 1000.2 1.6 NW 1.6 0.0 0.2
20:44 8.4 4.0 74 1000.2 1.6 NW 1.6 0.0 0.2
20:45 8.4 4.0 74 1000.1 0.0 NW 1.6 0.0 0.2
20:46 8.4 4.0 74 1000.2 0.7 NW 1.6 0.0 0.2
20:47 8.4 4.0 74 1000.2 0.7 NW 1.6 0.0 0.2
20:48 8.3 3.9 74 1000.1 0.7 NW 1.6 0.0 0.2
20:49 8.3 4.1 75 1000.1 0.7 NW 1.6 0.0 0.2
20:50 8.3 4.1 75 1000.1 0.7 NW 1.6 0.0 0.2
20:51 8.3 4.1 75 1000.1 0.7 NW 1.6 0.0 0.2
20:52 8.3 4.1 75 1000.0 0.0 NW 1.6 0.0 0.2
20:53 8.4 4.2 75 1000.2 0.0 NW 1.6 0.0 0.2
20:54 8.4 4.2 75 1000.2 0.0 N 0.7 0.0 0.2
20:55 8.4 4.2 75 1000.3 0.0 N 0.7 0.0 0.2
20:56 8.5 4.3 75 1000.2 0.0 N 0.7 0.0 0.2
20:57 8.5 4.5 76 1000.2 0.0 N 0.7 0.0 0.2
20:58 8.5 4.5 76 1000.2 0.7 N 0.7 0.0 0.2
20:59 8.5 4.5 76 1000.3 0.7 N 0.7 0.0 0.2
21:00 8.5 4.5 76 1000.2 0.0 N 0.7 0.0 0.2
21:01 8.5 4.5 76 1000.3 0.0 N 0.7 0.0 0.2
21:02 8.5 4.5 76 1000.2 0.0 N 0.7 0.0 0.2
21:03 8.5 4.5 76 1000.2 0.0 N 0.7 0.0 0.2
21:04 8.5 4.5 76 1000.1 0.0 N 0.7 0.0 0.2
21:05 8.5 4.5 76 1000.3 0.0 N 0.7 0.0 0.2
21:06 8.5 4.5 76 1000.2 0.0 N 0.7 0.0 0.2
21:07 8.5 4.5 76 1000.2 0.0 N 0.7 0.0 0.2
21:08 8.5 4.5 76 1000.2 0.0 N 0.7 0.0 0.2
21:09 8.5 4.5 76 1000.2 0.0 N 0.7 0.0 0.2
21:11 8.5 4.5 76 1000.2 0.7 N 0.7 0.0 0.2
21:14 8.6 4.6 76 1000.2 1.6 NE 1.6 0.0 0.2
21:15 8.6 4.6 76 1000.1 1.6 NE 1.6 0.0 0.2
21:16 8.6 4.6 76 1000.2 1.6 NE 1.6 0.0 0.2
21:18 8.6 4.8 77 1000.2 0.7 NE 1.6 0.0 0.2
21:19 8.6 4.8 77 1000.2 1.6 NE 1.6 0.0 0.2
21:20 8.6 4.8 77 1000.2 0.7 NE 1.6 0.0 0.2
21:21 8.6 4.6 76 1000.1 0.0 NE 1.6 0.0 0.2
21:23 8.6 4.6 76 1000.2 0.0 NE 1.6 0.0 0.2
21:24 8.6 4.8 77 1000.2 0.0 NE 1.6 0.0 0.2
21:25 8.6 4.6 76 1000.1 0.0 NE 1.6 0.0 0.2
21:26 8.7 4.9 77 1000.2 0.0 NE 1.6 0.0 0.2
21:27 8.7 4.9 77 1000.2 0.0 NE 1.6 0.0 0.2
21:28 8.7 4.9 77 1000.2 0.0 NE 1.6 0.0 0.2
21:29 8.7 4.9 77 1000.1 0.0 NE 0.7 0.0 0.2
21:30 8.7 4.9 77 1000.2 0.7 NE 0.7 0.0 0.2
21:31 8.7 4.9 77 1000.2 0.7 NE 0.7 0.0 0.2
21:32 8.7 4.9 77 1000.3 0.0 NE 0.7 0.0 0.2
21:33 8.8 5.0 77 1000.3 1.6 NE 1.6 0.0 0.2
21:34 8.8 5.0 77 1000.2 0.7 NE 1.6 0.0 0.2
21:35 8.8 5.0 77 1000.2 0.7 NE 1.6 0.0 0.2
21:36 8.8 5.0 77 1000.3 0.0 NE 1.6 0.0 0.2
21:37 8.8 5.0 77 1000.4 0.0 NE 1.6 0.0 0.2
21:38 8.8 5.0 77 1000.4 0.0 NE 1.6 0.0 0.2
21:39 8.8 5.0 77 1000.4 0.0 NE 1.6 0.0 0.2
21:40 8.8 5.0 77 1000.2 0.0 NE 1.6 0.0 0.2
21:42 8.8 5.0 77 1000.5 0.0 NE 1.6 0.0 0.2
21:43 8.8 5.0 77 1000.4 0.0 NE 0.7 0.0 0.3
21:44 8.8 5.0 77 1000.4 0.0 NE 0.7 0.8 0.3
21:45 8.8 5.0 77 1000.3 0.0 NE 0.0 0.8 0.3
21:46 8.9 5.1 77 1000.5 0.7 NE 0.7 0.8 0.3
21:47 8.9 5.3 78 1000.4 2.2 W 2.2 0.8 0.3
21:48 8.9 5.3 78 1000.5 5.4 NW 5.4 0.8 0.3
21:49 8.9 5.3 78 1000.5 4.5 NW 5.4 0.8 0.3
21:50 8.9 5.3 78 1000.4 2.2 NE 5.4 0.8 0.3
21:51 8.9 5.3 78 1000.4 2.2 NE 5.4 0.8 0.3
21:52 8.9 5.3 78 1000.3 2.2 NE 5.4 0.8 0.3
21:53 9.0 5.4 78 1000.4 2.2 N 5.4 0.8 0.3
21:54 9.0 5.4 78 1000.4 3.1 N 5.4 0.0 0.3
21:55 9.0 5.4 78 1000.4 3.1 N 5.4 0.0 0.3
21:56 9.1 5.5 78 1000.4 3.8 NW 5.4 0.0 0.3
21:57 9.1 5.5 78 1000.5 2.2 SW 5.4 0.0 0.3
21:58 9.1 5.7 79 1000.5 2.2 SW 5.4 0.0 0.3
21:59 9.1 5.7 79 1000.5 2.2 SW 4.5 0.0 0.3
22:00 9.2 5.8 79 1000.5 2.2 S 3.8 0.0 0.3
22:02 9.2 5.8 79 1000.6 2.2 S 3.8 0.0 0.3
22:03 9.2 5.8 79 1000.5 2.2 S 3.8 0.0 0.3
22:04 9.2 5.8 79 1000.6 2.2 S 3.8 0.0 0.3
22:05 9.2 5.8 79 1000.5 2.2 S 3.8 0.0 0.3
22:06 9.2 5.8 79 1000.5 2.2 S 3.8 0.0 0.3
22:07 9.2 5.8 79 1000.5 2.2 S 2.2 0.0 0.3
22:08 9.2 5.8 79 1000.5 2.2 S 2.2 0.0 0.3
22:09 9.3 5.8 79 1000.6 5.4 S 5.4 0.0 0.3
22:10 9.3 5.8 79 1000.6 2.2 S 5.4 0.0 0.3
22:11 9.3 5.8 79 1000.6 1.6 S 5.4 0.0 0.3
22:12 9.3 5.8 79 1000.6 1.6 S 5.4 0.0 0.3
22:13 9.3 5.8 79 1000.6 2.2 NE 5.4 0.0 0.3
22:14 9.3 5.8 79 1000.5 2.2 NE 5.4 0.0 0.3
22:15 9.3 5.8 79 1000.5 0.7 W 5.4 0.0 0.3
22:16 9.4 5.9 79 1000.5 1.6 S 5.4 0.0 0.3
22:17 9.4 5.9 79 1000.7 0.7 SE 5.4 0.0 0.3
22:18 9.4 5.9 79 1000.6 1.6 SE 5.4 0.0 0.3
22:19 9.4 5.9 79 1000.6 1.6 SE 5.4 0.0 0.3
22:21 9.4 5.9 79 1000.5 1.6 SE 3.1 0.0 0.3
22:22 9.4 5.9 79 1000.6 3.1 SE 3.1 0.0 0.3
22:23 9.4 5.9 79 1000.5 3.1 SE 3.1 0.0 0.3
22:24 9.4 5.9 79 1000.6 3.1 SE 3.1 0.0 0.3
22:25 9.4 5.9 79 1000.6 3.1 SE 3.1 0.0 0.3
22:26 9.4 5.9 79 1000.6 3.8 SE 3.8 0.0 0.3
22:27 9.3 5.8 79 1000.6 4.5 SE 4.5 0.0 0.3
22:28 9.4 5.9 79 1000.5 5.4 SE 5.4 0.0 0.3
22:29 9.4 5.9 79 1000.5 5.4 SE 5.4 0.0 0.3
22:30 9.4 5.9 79 1000.7 4.5 SE 5.4 0.0 0.3
22:31 9.4 5.9 79 1000.6 4.5 SE 5.4 0.0 0.3
22:32 9.4 5.9 79 1000.6 4.5 SE 5.4 0.0 0.3
22:33 9.4 5.9 79 1000.7 6.0 S 6.0 0.0 0.3
22:34 9.4 5.9 79 1000.6 6.0 SE 6.0 0.0 0.3
22:35 9.4 5.9 79 1000.5 5.4 SE 6.0 0.0 0.3
22:36 9.4 5.9 79 1000.5 5.4 SE 6.0 0.0 0.3
22:37 9.4 5.9 79 1000.6 6.0 SE 6.0 0.0 0.3
22:38 9.4 5.9 79 1000.6 6.0 SE 6.0 0.0 0.3
22:39 9.4 5.9 79 1000.7 6.0 SE 6.0 0.0 0.3
22:41 9.4 5.9 79 1000.5 5.4 SE 6.0 0.0 0.3
22:42 9.5 6.0 79 1000.6 6.9 SE 6.9 0.0 0.3
22:43 9.5 6.0 79 1000.6 6.9 SE 6.9 0.0 0.3
22:44 9.5 6.0 79 1000.7 5.4 SE 6.9 0.0 0.3
22:45 9.5 6.0 79 1000.6 5.4 SE 6.9 0.0 0.3
22:46 9.5 6.0 79 1000.6 6.0 SE 6.9 0.0 0.3
22:47 9.5 6.0 79 1000.7 7.6 E 7.6 0.0 0.3
22:48 9.5 6.0 79 1000.6 6.0 SE 7.6 0.0 0.3
22:49 9.5 6.0 79 1000.6 5.4 SE 7.6 0.0 0.3
22:50 9.5 6.0 79 1000.5 4.5 SE 7.6 0.0 0.3
22:51 9.5 6.0 79 1000.6 6.0 SE 7.6 0.0 0.3
22:52 9.6 6.1 79 1000.5 5.4 SE 7.6 0.0 0.3
22:53 9.6 6.1 79 1000.5 6.9 SE 7.6 0.0 0.3
22:54 9.6 6.1 79 1000.6 5.4 SE 7.6 0.0 0.3
22:55 9.5 6.0 79 1006.5 6.0 SE 7.6 0.0 0.3
22:56 9.5 6.0 79 1006.6 5.4 SE 7.6 0.0 0.3
22:57 9.5 6.0 79 1006.5 6.0 SE 7.6 0.0 0.3
22:58 9.5 6.0 79 1006.5 5.4 SSE 6.9 0.0 0.3
22:59 9.5 6.0 79 1006.5 6.0 SE 6.9 0.0 0.3
23:00 9.5 6.0 79 1006.5 6.0 SE 6.9 0.0 0.3
23:01 9.5 6.0 79 1006.6 6.0 SE 6.9 0.0 0.3
23:02 9.5 6.0 79 1006.5 6.0 SE 6.9 0.0 0.3
23:03 9.5 6.0 79 1006.6 6.0 SE 6.9 0.0 0.3
23:04 9.5 6.0 79 1006.6 6.0 SE 6.9 0.0 0.3
23:05 9.5 6.0 79 1006.5 6.0 SE 6.9 0.0 0.3
23:06 9.4 5.9 79 1006.5 5.4 E 6.9 0.0 0.3
23:07 9.4 5.9 79 1006.6 6.0 E 6.0 0.0 0.3
23:08 9.4 5.9 79 1006.6 6.9 SE 6.9 0.0 0.3
23:09 9.4 5.9 79 1006.3 6.0 S 6.9 0.0 0.3
23:10 9.4 5.9 79 1006.6 6.0 SE 6.9 0.0 0.3
23:11 9.3 5.8 79 1006.5 6.9 SE 6.9 0.0 0.3
23:13 9.3 5.8 79 1006.4 5.4 SSE 6.9 0.0 0.3
23:14 9.3 5.8 79 1006.6 6.0 S 6.9 0.0 0.3
23:16 9.3 5.8 79 1006.6 5.4 SE 6.9 0.0 0.3
23:17 9.3 5.8 79 1006.5 6.0 SE 6.9 0.0 0.3
23:18 9.3 6.0 80 1006.4 6.0 SE 6.9 0.0 0.3
23:19 9.3 6.0 80 1006.6 6.0 SE 6.9 0.0 0.3
23:20 9.3 6.0 80 1006.4 7.6 SE 7.6 0.0 0.3
23:21 9.3 6.0 80 1006.5 6.9 SE 7.6 0.0 0.3
23:22 9.3 6.0 80 1006.4 6.0 SE 7.6 0.0 0.3
23:23 9.3 6.0 80 1006.5 6.0 S 7.6 0.0 0.3
23:24 9.3 6.0 80 1006.4 5.4 SE 7.6 0.0 0.3
23:25 9.3 6.0 80 1006.4 6.9 SE 7.6 0.0 0.3
23:26 9.3 6.0 80 1006.6 6.0 SE 7.6 0.0 0.3
23:27 9.3 6.0 80 1006.3 7.6 SE 7.6 0.0 0.3
23:28 9.3 6.0 80 1006.5 6.9 SSE 7.6 0.0 0.3
23:29 9.3 6.0 80 1006.3 5.4 SE 7.6 0.0 0.3
23:30 9.3 6.0 80 1006.4 6.0 SE 7.6 0.0 0.3
23:31 9.3 6.0 80 1006.4 6.0 SE 7.6 0.0 0.3
23:32 9.3 6.0 80 1006.4 6.0 SE 7.6 0.0 0.3
23:33 9.3 6.0 80 1006.4 5.4 S 7.6 0.0 0.3
23:34 9.3 6.0 80 1006.5 6.9 SE 7.6 0.0 0.3
23:35 9.3 6.0 80 1006.2 6.0 SE 7.6 0.0 0.3
23:36 9.3 6.0 80 1006.3 6.9 SE 7.6 0.0 0.3
23:38 9.3 6.0 80 1006.5 7.6 SE 7.6 0.0 0.3
23:39 9.3 6.0 80 1006.3 6.9 SE 7.6 0.0 0.3
23:40 9.3 6.0 80 1006.5 6.9 SE 7.6 0.0 0.3
23:41 9.3 6.0 80 1006.2 6.9 S 7.6 0.0 0.3
23:42 9.3 6.0 80 1006.3 7.6 SE 7.6 0.0 0.3
23:43 9.3 6.0 80 1006.3 7.6 SE 7.6 0.0 0.3
23:44 9.3 6.0 80 1006.4 6.0 SE 7.6 0.0 0.3
23:45 9.3 6.0 80 1006.4 6.9 S 7.6 0.0 0.3
23:46 9.3 6.0 80 1006.5 6.9 SE 7.6 0.0 0.3
23:47 9.3 6.0 80 1006.4 6.0 S 7.6 0.0 0.3
23:48 9.3 6.0 80 1006.4 5.4 SE 7.6 0.0 0.3
23:49 9.3 6.0 80 1006.3 8.3 SE 8.3 0.0 0.3
23:50 9.3 6.0 80 1006.4 7.6 E 8.3 0.0 0.3
23:51 9.3 6.0 80 1006.4 6.0 SE 8.3 0.0 0.3
23:52 9.3 6.2 81 1006.4 6.9 SE 8.3 0.0 0.3
23:53 9.3 6.0 80 1006.3 7.6 S 8.3 0.0 0.3
23:54 9.3 6.2 81 1006.2 7.6 SE 8.3 0.0 0.3
23:55 9.3 6.2 81 1006.2 6.9 E 8.3 0.0 0.3
23:57 9.3 6.2 81 1006.1 5.4 SSW 8.3 0.0 0.3
23:58 9.3 6.2 81 1006.2 6.0 SE 8.3 0.0 0.3
23:59 9.3 6.2 81 1006.3 6.9 SE 8.3 0.0 0.3

UK - WEATHER STATION TOPSITES - UK World Weather Websites

This is a private weather station, never base important decisions or events on data from this weather station. Although every effort has been made to make the data as accurate as possible it does not meet MetOffice standards. It is proved as a guide of local weather conditions. We accept no liability for any loss which may arise from use of the data.

Copyright © Carnkie Weather 2009 - 2019.